UAL263 EGLL-KDEN

Flight info

Callsign UAL263
Flight time 9h 12m
Altitude 36000
Route CPT L9 DIDZA N14 OKTAD DCT MEDOG DCT VATRY DCT KORAK DCT REVNU DCT PIGET DCT SUNOT/M081F380 NATA HOIST/N0477F380 DCT JOVIE DCT PELEE/N0484F400 DCT MISAX DCT KP21G DCT KP15E DCT KP09C DCT KP90A DCT KD78Y DCT NYTRO AALLE4
Aircraft B772/H-SDE2E3FGHIJ5LORVWXY/LB1D1

Departure

Time 2026-05-05 14:15
Airport London Heathrow Airport (EGLL)

Arrival

Time 2026-05-05 23:27
Airport Denver International Airport (KDEN)
Time Latitude Longitude Altitude Speed Heading
2026-05-05 13:53 51.47267 -0.44212 91 ft 0 kts 270°
2026-05-05 14:02 51.47267 -0.44202 91 ft 2 kts 270°
2026-05-05 14:02 51.47267 -0.44170 92 ft 3 kts 270°
2026-05-05 14:02 51.47267 -0.44138 92 ft 3 kts 270°
2026-05-05 14:02 51.47268 -0.44108 92 ft 3 kts 252°
2026-05-05 14:03 51.47277 -0.44081 91 ft 3 kts 219°
2026-05-05 14:03 51.47293 -0.44066 91 ft 3 kts 193°
2026-05-05 14:03 51.47309 -0.44062 92 ft 1 kts 180°
2026-05-05 14:03 51.47310 -0.44062 95 ft 0 kts 180°
2026-05-05 14:05 51.47307 -0.44062 94 ft 4 kts 180°
2026-05-05 14:06 51.47228 -0.44061 95 ft 17 kts 180°
2026-05-05 14:06 51.47107 -0.44060 95 ft 17 kts 180°
2026-05-05 14:06 51.46986 -0.44059 95 ft 17 kts 180°
2026-05-05 14:06 51.46867 -0.44058 91 ft 17 kts 179°
2026-05-05 14:07 51.46746 -0.44055 95 ft 17 kts 179°
2026-05-05 14:07 51.46670 -0.44116 91 ft 13 kts 248°
2026-05-05 14:07 51.46665 -0.44281 91 ft 17 kts 269°
2026-05-05 14:07 51.46663 -0.44469 91 ft 17 kts 269°
2026-05-05 14:08 51.46663 -0.44660 91 ft 19 kts 270°
2026-05-05 14:08 51.46662 -0.44871 91 ft 19 kts 270°
2026-05-05 14:08 51.46662 -0.45082 91 ft 19 kts 270°
2026-05-05 14:08 51.46662 -0.45304 91 ft 22 kts 270°
2026-05-05 14:09 51.46661 -0.45566 91 ft 24 kts 270°
2026-05-05 14:09 51.46660 -0.45834 95 ft 24 kts 269°
2026-05-05 14:09 51.46658 -0.46086 94 ft 18 kts 270°
2026-05-05 14:09 51.46658 -0.46265 94 ft 14 kts 269°
2026-05-05 14:10 51.46701 -0.46410 96 ft 20 kts 328°
2026-05-05 14:10 51.46746 -0.46631 95 ft 25 kts 269°
2026-05-05 14:10 51.46745 -0.46913 92 ft 28 kts 270°
2026-05-05 14:10 51.46746 -0.47274 94 ft 37 kts 270°
2026-05-05 14:11 51.46743 -0.47682 91 ft 35 kts 269°
2026-05-05 14:11 51.46742 -0.48052 92 ft 31 kts 269°
2026-05-05 14:11 51.46740 -0.48360 91 ft 18 kts 267°
2026-05-05 14:11 51.46670 -0.48481 95 ft 15 kts 183°
2026-05-05 14:12 51.46607 -0.48472 93 ft 0 kts 178°
2026-05-05 14:12 51.46561 -0.48473 93 ft 12 kts 181°
2026-05-05 14:13 51.46488 -0.48433 96 ft 12 kts 127°
2026-05-05 14:13 51.46479 -0.48350 96 ft 0 kts 90°
2026-05-05 14:14 51.46479 -0.48124 92 ft 50 kts 90°
2026-05-05 14:14 51.46484 -0.47220 94 ft 113 kts 90°
2026-05-05 14:14 51.46495 -0.45648 100 ft 166 kts 89°
2026-05-05 14:15 51.46490 -0.43799 781 ft 161 kts 88°
2026-05-05 14:15 51.46394 -0.41939 1418 ft 177 kts 100°
2026-05-05 14:15 51.45983 -0.40063 2111 ft 183 kts 113°
2026-05-05 14:15 51.45218 -0.38281 2278 ft 206 kts 134°
2026-05-05 14:16 51.43911 -0.37093 2427 ft 232 kts 165°
2026-05-05 14:16 51.42246 -0.37161 2642 ft 252 kts 197°
2026-05-05 14:16 51.41196 -0.38023 2888 ft 260 kts 219°
2026-05-05 14:16 51.39978 -0.40831 3603 ft 262 kts 257°
2026-05-05 14:17 51.39930 -0.43677 4275 ft 255 kts 283°
2026-05-05 14:17 51.40326 -0.46481 4797 ft 260 kts 285°
2026-05-05 14:17 51.40736 -0.49325 5404 ft 265 kts 284°
2026-05-05 14:17 51.41127 -0.52240 5987 ft 269 kts 283°
2026-05-05 14:18 51.41501 -0.55194 6597 ft 273 kts 282°
2026-05-05 14:18 51.41861 -0.58206 7156 ft 277 kts 282°
2026-05-05 14:18 51.42208 -0.61250 7780 ft 279 kts 281°
2026-05-05 14:18 51.42549 -0.64318 8408 ft 281 kts 281°
2026-05-05 14:19 51.42883 -0.67377 9027 ft 284 kts 281°
2026-05-05 14:19 51.43221 -0.70500 9661 ft 286 kts 280°
2026-05-05 14:19 51.43563 -0.73684 9958 ft 295 kts 280°
2026-05-05 14:19 51.43931 -0.76921 9925 ft 292 kts 282°
2026-05-05 14:20 51.44329 -0.80154 10158 ft 303 kts 282°
2026-05-05 14:20 51.44753 -0.83584 10303 ft 324 kts 282°
2026-05-05 14:20 51.45201 -0.87235 10503 ft 343 kts 282°
2026-05-05 14:20 51.45653 -0.91052 11000 ft 352 kts 281°
2026-05-05 14:21 51.46100 -0.94960 11622 ft 359 kts 281°
2026-05-05 14:21 51.46549 -0.98916 12401 ft 362 kts 281°
2026-05-05 14:21 51.47003 -1.02899 13226 ft 364 kts 281°
2026-05-05 14:21 51.47467 -1.06926 13912 ft 370 kts 281°
2026-05-05 14:22 51.47940 -1.11009 14576 ft 374 kts 281°
2026-05-05 14:22 51.48413 -1.15116 15301 ft 376 kts 281°
2026-05-05 14:22 51.48908 -1.19234 15967 ft 374 kts 284°
2026-05-05 14:22 51.49978 -1.23072 16402 ft 382 kts 306°
2026-05-05 14:23 51.51815 -1.26145 16958 ft 384 kts 318°
2026-05-05 14:23 51.53140 -1.28047 17292 ft 388 kts 318°
2026-05-05 14:23 51.55148 -1.30981 17937 ft 391 kts 317°
2026-05-05 14:23 51.57793 -1.34941 18782 ft 393 kts 316°
2026-05-05 14:24 51.59718 -1.38080 19346 ft 395 kts 309°
2026-05-05 14:24 51.61396 -1.41584 19928 ft 397 kts 303°
2026-05-05 14:24 51.62396 -1.44122 20271 ft 398 kts 298°
2026-05-05 14:24 51.63703 -1.48064 20808 ft 400 kts 296°
2026-05-05 14:25 51.64983 -1.52052 21350 ft 403 kts 296°
2026-05-05 14:25 51.66286 -1.56076 21840 ft 407 kts 296°
2026-05-05 14:25 51.67614 -1.60126 22389 ft 410 kts 296°
2026-05-05 14:25 51.68930 -1.64214 22940 ft 412 kts 293°
2026-05-05 14:26 51.69962 -1.68475 23482 ft 414 kts 286°
2026-05-05 14:26 51.70701 -1.72973 23951 ft 416 kts 280°
2026-05-05 14:26 51.71121 -1.77593 24403 ft 417 kts 275°
2026-05-05 14:26 51.71426 -1.82256 24860 ft 420 kts 274°
2026-05-05 14:27 51.71814 -1.86936 25305 ft 423 kts 279°
2026-05-05 14:27 51.72471 -1.91575 25734 ft 426 kts 282°
2026-05-05 14:27 51.73184 -1.96221 26165 ft 428 kts 282°
2026-05-05 14:27 51.73907 -2.00896 26594 ft 431 kts 282°
2026-05-05 14:28 51.74627 -2.05603 27022 ft 433 kts 282°
2026-05-05 14:28 51.75341 -2.10331 27428 ft 435 kts 282°
2026-05-05 14:28 51.76048 -2.15086 27826 ft 437 kts 281°
2026-05-05 14:28 51.76752 -2.19861 28224 ft 439 kts 281°
2026-05-05 14:29 51.77459 -2.24681 28580 ft 441 kts 281°
2026-05-05 14:29 51.78164 -2.29505 28951 ft 443 kts 281°
2026-05-05 14:29 51.78870 -2.34352 29297 ft 445 kts 281°
2026-05-05 14:29 51.79581 -2.39239 29628 ft 447 kts 281°
2026-05-05 14:30 51.80291 -2.44136 29944 ft 449 kts 281°
2026-05-05 14:30 51.81004 -2.49065 30184 ft 452 kts 281°
2026-05-05 14:30 51.81719 -2.54030 30397 ft 455 kts 281°
2026-05-05 14:30 51.82422 -2.59023 30638 ft 457 kts 281°
2026-05-05 14:31 51.83104 -2.64041 30887 ft 458 kts 280°
2026-05-05 14:31 51.83779 -2.69081 31123 ft 459 kts 280°
2026-05-05 14:31 51.84453 -2.74143 31314 ft 462 kts 280°
2026-05-05 14:31 51.85122 -2.79167 31497 ft 464 kts 281°
2026-05-05 14:32 51.85803 -2.84283 31673 ft 466 kts 281°
2026-05-05 14:32 51.86486 -2.89417 31918 ft 467 kts 281°
2026-05-05 14:32 51.87166 -2.94540 32179 ft 466 kts 281°
2026-05-05 14:32 51.87845 -2.99674 32440 ft 466 kts 281°
2026-05-05 14:33 51.88522 -3.04803 32703 ft 466 kts 281°
2026-05-05 14:33 51.89200 -3.09956 32908 ft 467 kts 281°
2026-05-05 14:33 51.89875 -3.15113 33119 ft 468 kts 281°
2026-05-05 14:33 51.90547 -3.20265 33360 ft 468 kts 281°
2026-05-05 14:34 51.91218 -3.25428 33589 ft 469 kts 281°
2026-05-05 14:34 51.91887 -3.30597 33805 ft 469 kts 282°
2026-05-05 14:34 51.92555 -3.35776 34018 ft 470 kts 282°
2026-05-05 14:34 51.93222 -3.40958 34198 ft 470 kts 282°
2026-05-05 14:35 51.93886 -3.46146 34391 ft 470 kts 282°
2026-05-05 14:35 51.94608 -3.51312 34573 ft 470 kts 286°
2026-05-05 14:35 51.95620 -3.56349 34766 ft 470 kts 291°
2026-05-05 14:35 51.96919 -3.61208 34938 ft 470 kts 297°
2026-05-05 14:36 51.98422 -3.65910 35110 ft 470 kts 298°
2026-05-05 14:36 51.99951 -3.70598 35284 ft 470 kts 298°
2026-05-05 14:36 52.01480 -3.75275 35481 ft 470 kts 298°
2026-05-05 14:36 52.03003 -3.79964 35685 ft 469 kts 298°
2026-05-05 14:37 52.04515 -3.84659 35861 ft 469 kts 298°
2026-05-05 14:37 52.06019 -3.89361 35940 ft 470 kts 298°
2026-05-05 14:37 52.08998 -3.98743 36028 ft 471 kts 297°
2026-05-05 14:38 52.11985 -4.08202 36011 ft 462 kts 297°
2026-05-05 14:38 52.14922 -4.17545 36034 ft 466 kts 297°
2026-05-05 14:39 52.17857 -4.26908 36019 ft 467 kts 297°
2026-05-05 14:39 52.20799 -4.36331 36036 ft 466 kts 297°
2026-05-05 14:40 52.23730 -4.45755 36048 ft 465 kts 297°
2026-05-05 14:40 52.26651 -4.55182 36044 ft 465 kts 297°
2026-05-05 14:41 52.29565 -4.64624 36045 ft 465 kts 296°
2026-05-05 14:41 52.32462 -4.74049 36050 ft 464 kts 296°
2026-05-05 14:42 52.35355 -4.83496 36055 ft 464 kts 296°
2026-05-05 14:42 52.38233 -4.92931 36063 ft 463 kts 296°
2026-05-05 14:43 52.41100 -5.02367 36051 ft 463 kts 296°
2026-05-05 14:43 52.43955 -5.11802 36047 ft 462 kts 296°
2026-05-05 14:44 52.46802 -5.21244 36046 ft 461 kts 296°
2026-05-05 14:44 52.49632 -5.30671 36049 ft 461 kts 295°
2026-05-05 14:45 52.52436 -5.40045 36059 ft 460 kts 295°
2026-05-05 14:45 52.55259 -5.49468 36068 ft 460 kts 297°
2026-05-05 14:46 52.58577 -5.58525 36069 ft 459 kts 301°
2026-05-05 14:46 52.62013 -5.67394 36072 ft 459 kts 302°
2026-05-05 14:47 52.65429 -5.76283 36071 ft 459 kts 301°
2026-05-05 14:47 52.68799 -5.85145 36055 ft 460 kts 301°
2026-05-05 14:48 52.72201 -5.94154 36060 ft 460 kts 301°
2026-05-05 14:48 52.75578 -6.03128 36058 ft 460 kts 301°
2026-05-05 14:49 52.78925 -6.12053 36056 ft 460 kts 301°
2026-05-05 14:49 52.82292 -6.21064 36060 ft 460 kts 301°
2026-05-05 14:50 52.85649 -6.30080 36059 ft 460 kts 301°
2026-05-05 14:50 52.89005 -6.39119 36073 ft 460 kts 301°
2026-05-05 14:51 52.92350 -6.48168 36055 ft 460 kts 301°
2026-05-05 14:51 52.95687 -6.57226 36055 ft 460 kts 300°
2026-05-05 14:52 52.99018 -6.66300 36061 ft 460 kts 300°
2026-05-05 14:52 53.02342 -6.75388 36063 ft 460 kts 300°
2026-05-05 14:53 53.05658 -6.84486 36054 ft 460 kts 300°
2026-05-05 14:53 53.08961 -6.93582 36061 ft 459 kts 300°
2026-05-05 14:54 53.12234 -7.02628 36057 ft 459 kts 300°
2026-05-05 14:54 53.15518 -7.11737 36063 ft 458 kts 300°
2026-05-05 14:55 53.18794 -7.20860 36063 ft 458 kts 300°
2026-05-05 14:55 53.22059 -7.29982 36063 ft 458 kts 300°
2026-05-05 14:56 53.25318 -7.39123 36063 ft 458 kts 300°
2026-05-05 14:56 53.28570 -7.48279 36070 ft 457 kts 300°
2026-05-05 14:57 53.31811 -7.57437 36063 ft 457 kts 300°
2026-05-05 14:57 53.35044 -7.66604 36060 ft 457 kts 300°
2026-05-05 14:58 53.38269 -7.75778 36063 ft 457 kts 300°
2026-05-05 14:58 53.41907 -7.84518 36074 ft 457 kts 308°
2026-05-05 14:59 53.45931 -7.92793 36068 ft 458 kts 308°
2026-05-05 14:59 53.49957 -8.01075 36067 ft 458 kts 308°
2026-05-05 15:00 53.53283 -8.07991 36069 ft 458 kts 308°
2026-05-05 15:00 53.57917 -8.17705 36075 ft 458 kts 307°
2026-05-05 15:01 53.61901 -8.26098 36069 ft 458 kts 307°
2026-05-05 15:01 53.65873 -8.34492 36074 ft 458 kts 307°
2026-05-05 15:02 53.69841 -8.42903 36081 ft 458 kts 307°
2026-05-05 15:02 53.73803 -8.51330 36092 ft 458 kts 307°
2026-05-05 15:03 53.77760 -8.59776 36091 ft 458 kts 307°
2026-05-05 15:03 53.81710 -8.68233 36102 ft 458 kts 307°
2026-05-05 15:04 53.85652 -8.76703 36109 ft 458 kts 307°
2026-05-05 15:04 53.89591 -8.85196 36105 ft 458 kts 307°
2026-05-05 15:05 53.95494 -8.97977 36103 ft 458 kts 306°
2026-05-05 15:06 53.99418 -9.06509 36107 ft 458 kts 306°
2026-05-05 15:06 54.03334 -9.15055 36103 ft 458 kts 306°
2026-05-05 15:07 54.06587 -9.22176 36106 ft 458 kts 306°
2026-05-05 15:07 54.11126 -9.32144 36110 ft 458 kts 306°
2026-05-05 15:08 54.15026 -9.40741 36114 ft 458 kts 306°
2026-05-05 15:08 54.18282 -9.47941 36115 ft 457 kts 306°
2026-05-05 15:09 54.22161 -9.56549 36120 ft 457 kts 306°
2026-05-05 15:09 54.26007 -9.65113 36126 ft 457 kts 306°
2026-05-05 15:10 54.29870 -9.73742 36122 ft 457 kts 306°
2026-05-05 15:10 54.33751 -9.82442 36130 ft 456 kts 306°
2026-05-05 15:11 54.37573 -9.91040 36132 ft 456 kts 306°
2026-05-05 15:11 54.41411 -9.99706 36136 ft 455 kts 306°
2026-05-05 15:12 54.45235 -10.08365 36139 ft 455 kts 306°
2026-05-05 15:12 54.49454 -10.16474 36141 ft 455 kts 314°
2026-05-05 15:13 54.54024 -10.24006 36147 ft 455 kts 315°
2026-05-05 15:13 54.58600 -10.31547 36144 ft 455 kts 314°
2026-05-05 15:14 54.63154 -10.39135 36145 ft 455 kts 314°
2026-05-05 15:14 54.67697 -10.46765 36148 ft 455 kts 314°
2026-05-05 15:15 54.72228 -10.54406 36149 ft 455 kts 314°
2026-05-05 15:15 54.76756 -10.62069 36153 ft 455 kts 314°
2026-05-05 15:16 54.81278 -10.69744 36153 ft 455 kts 314°
2026-05-05 15:16 54.85769 -10.77390 36150 ft 455 kts 314°
2026-05-05 15:17 54.90282 -10.85100 36154 ft 455 kts 313°
2026-05-05 15:17 54.94784 -10.92817 36150 ft 454 kts 313°
2026-05-05 15:18 54.99285 -11.00559 36160 ft 454 kts 313°
2026-05-05 15:18 55.03773 -11.08303 36165 ft 454 kts 313°
2026-05-05 15:19 55.08260 -11.16072 36161 ft 454 kts 313°
2026-05-05 15:19 55.12737 -11.23849 36153 ft 454 kts 313°
2026-05-05 15:20 55.17209 -11.31643 36152 ft 454 kts 313°
2026-05-05 15:20 55.20206 -11.36882 36159 ft 454 kts 313°
2026-05-05 15:21 55.24666 -11.44698 36161 ft 453 kts 313°
2026-05-05 15:21 55.29119 -11.52531 36160 ft 453 kts 313°
2026-05-05 15:22 55.33567 -11.60380 36164 ft 453 kts 313°
2026-05-05 15:22 55.38009 -11.68244 36167 ft 453 kts 313°
2026-05-05 15:23 55.42422 -11.76085 36163 ft 453 kts 313°
2026-05-05 15:23 55.46851 -11.83980 36167 ft 453 kts 313°
2026-05-05 15:24 55.51273 -11.91890 36169 ft 453 kts 312°
2026-05-05 15:24 55.55696 -11.99829 36169 ft 453 kts 312°
2026-05-05 15:25 55.60106 -12.07772 36169 ft 453 kts 312°
2026-05-05 15:25 55.64511 -12.15731 36171 ft 452 kts 312°
2026-05-05 15:26 55.68901 -12.23692 36174 ft 452 kts 312°
2026-05-05 15:26 55.73271 -12.31644 36177 ft 452 kts 312°
2026-05-05 15:27 55.77664 -12.39665 36176 ft 452 kts 312°
2026-05-05 15:27 55.82047 -12.47692 36180 ft 452 kts 312°
2026-05-05 15:28 55.86333 -12.55868 36180 ft 451 kts 309°
2026-05-05 15:28 55.90427 -12.64337 36178 ft 451 kts 309°
2026-05-05 15:29 55.94505 -12.72839 36180 ft 451 kts 309°
2026-05-05 15:29 55.98581 -12.81280 36175 ft 451 kts 309°
2026-05-05 15:30 56.02686 -12.89761 36177 ft 451 kts 309°
2026-05-05 15:30 56.06798 -12.98277 36183 ft 451 kts 309°
2026-05-05 15:31 56.10874 -13.06748 36189 ft 451 kts 309°
2026-05-05 15:31 56.14963 -13.15280 36188 ft 451 kts 309°
2026-05-05 15:32 56.19046 -13.23830 36192 ft 451 kts 309°
2026-05-05 15:32 56.23123 -13.32400 36188 ft 451 kts 309°
2026-05-05 15:33 56.27195 -13.40987 36191 ft 451 kts 309°
2026-05-05 15:33 56.31260 -13.49593 36195 ft 451 kts 309°
2026-05-05 15:34 56.35320 -13.58217 36194 ft 451 kts 309°
2026-05-05 15:34 56.39353 -13.66816 36194 ft 451 kts 309°
2026-05-05 15:35 56.43400 -13.75476 36197 ft 451 kts 309°
2026-05-05 15:35 56.47448 -13.84169 36197 ft 451 kts 309°
2026-05-05 15:36 56.51476 -13.92851 36198 ft 451 kts 309°
2026-05-05 15:36 56.55505 -14.01567 36195 ft 451 kts 308°
2026-05-05 15:37 56.59528 -14.10301 36196 ft 451 kts 308°
2026-05-05 15:37 56.63551 -14.19067 36197 ft 451 kts 308°
2026-05-05 15:38 56.67561 -14.27837 36198 ft 451 kts 308°
2026-05-05 15:38 56.71563 -14.36624 36198 ft 451 kts 308°
2026-05-05 15:39 56.75559 -14.45427 36201 ft 451 kts 308°
2026-05-05 15:39 56.79547 -14.54246 36202 ft 451 kts 308°
2026-05-05 15:40 56.83528 -14.63082 36202 ft 450 kts 308°
2026-05-05 15:40 56.87501 -14.71934 36203 ft 450 kts 308°
2026-05-05 15:41 56.91467 -14.80803 36202 ft 450 kts 308°
2026-05-05 15:41 56.95425 -14.89684 36198 ft 450 kts 308°
2026-05-05 15:42 56.99183 -14.98741 36193 ft 449 kts 301°
2026-05-05 15:42 57.02070 -15.08853 36200 ft 447 kts 292°
2026-05-05 15:43 57.04422 -15.19426 36202 ft 447 kts 291°
2026-05-05 15:43 57.06750 -15.30051 36203 ft 448 kts 292°
2026-05-05 15:44 57.09082 -15.40644 36202 ft 448 kts 292°
2026-05-05 15:44 57.11423 -15.51263 36201 ft 448 kts 292°
2026-05-05 15:45 57.13765 -15.61915 36202 ft 448 kts 292°
2026-05-05 15:45 57.16095 -15.72567 36202 ft 448 kts 292°
2026-05-05 15:46 57.18416 -15.83239 36202 ft 449 kts 292°
2026-05-05 15:46 57.20734 -15.93950 36203 ft 449 kts 292°
2026-05-05 15:47 57.23024 -16.04592 36207 ft 449 kts 292°
2026-05-05 15:47 57.25339 -16.15398 36206 ft 450 kts 292°
2026-05-05 15:48 57.27615 -16.26084 36208 ft 450 kts 292°
2026-05-05 15:48 57.29899 -16.36863 36210 ft 450 kts 292°
2026-05-05 15:49 57.32176 -16.47666 36210 ft 451 kts 292°
2026-05-05 15:49 57.34446 -16.58491 36212 ft 451 kts 292°
2026-05-05 15:50 57.36708 -16.69338 36215 ft 452 kts 292°
2026-05-05 15:50 57.38962 -16.80206 36213 ft 452 kts 292°
2026-05-05 15:51 57.41209 -16.91094 36213 ft 452 kts 292°
2026-05-05 15:51 57.43446 -17.01998 36216 ft 452 kts 292°
2026-05-05 15:52 57.45679 -17.12938 36221 ft 452 kts 292°
2026-05-05 15:52 57.47849 -17.23630 36220 ft 452 kts 291°
2026-05-05 15:53 57.50060 -17.34580 36223 ft 452 kts 291°
2026-05-05 15:53 57.52260 -17.45540 36225 ft 452 kts 291°
2026-05-05 15:54 57.54451 -17.56509 36227 ft 452 kts 291°
2026-05-05 15:54 57.56631 -17.67487 36225 ft 452 kts 291°
2026-05-05 15:55 57.58800 -17.78472 36229 ft 452 kts 291°
2026-05-05 15:55 57.60962 -17.89483 36233 ft 451 kts 291°
2026-05-05 15:56 57.62750 -17.98634 36230 ft 451 kts 291°
2026-05-05 15:56 57.65236 -18.11436 36235 ft 451 kts 291°
2026-05-05 15:57 57.67006 -18.20599 36237 ft 451 kts 291°
2026-05-05 15:57 57.69124 -18.31620 36238 ft 450 kts 291°
2026-05-05 15:58 57.71231 -18.42648 36240 ft 450 kts 291°
2026-05-05 15:58 57.73331 -18.53702 36240 ft 450 kts 291°
2026-05-05 15:59 57.75417 -18.64744 36243 ft 450 kts 291°
2026-05-05 15:59 57.77492 -18.75795 36244 ft 450 kts 291°
2026-05-05 16:00 57.79557 -18.86853 36244 ft 449 kts 291°
2026-05-05 16:00 57.81611 -18.97919 36246 ft 449 kts 291°
2026-05-05 16:01 57.83641 -19.08918 36256 ft 449 kts 291°
2026-05-05 16:01 57.85674 -19.19997 36252 ft 449 kts 291°
2026-05-05 16:02 57.87695 -19.31079 36250 ft 448 kts 291°
2026-05-05 16:02 57.89708 -19.42181 36252 ft 448 kts 291°
2026-05-05 16:03 57.91676 -19.53101 36250 ft 447 kts 291°
2026-05-05 16:03 57.93691 -19.64339 36251 ft 447 kts 291°
2026-05-05 16:04 57.95666 -19.75429 36254 ft 447 kts 291°
2026-05-05 16:04 57.97632 -19.86526 36254 ft 447 kts 291°
2026-05-05 16:05 57.99487 -19.97641 36259 ft 448 kts 286°
2026-05-05 16:05 58.00433 -20.09285 36258 ft 451 kts 277°
2026-05-05 16:06 58.00854 -20.21105 36255 ft 452 kts 277°
2026-05-05 16:06 58.01257 -20.32939 36257 ft 452 kts 277°
2026-05-05 16:07 58.01671 -20.44776 36265 ft 452 kts 277°
2026-05-05 16:07 58.02087 -20.56621 36265 ft 453 kts 277°
2026-05-05 16:08 58.02495 -20.68475 36251 ft 453 kts 277°
2026-05-05 16:08 58.02893 -20.80355 36261 ft 453 kts 277°
2026-05-05 16:09 58.03279 -20.92220 36261 ft 453 kts 277°
2026-05-05 16:09 58.03653 -21.04087 36257 ft 453 kts 277°
2026-05-05 16:10 58.04017 -21.15956 36258 ft 453 kts 277°
2026-05-05 16:10 58.04367 -21.27765 36262 ft 453 kts 277°
2026-05-05 16:11 58.04708 -21.39630 36260 ft 453 kts 277°
2026-05-05 16:12 58.05357 -21.63352 36264 ft 452 kts 277°
2026-05-05 16:13 58.06105 -21.92973 36261 ft 452 kts 276°
2026-05-05 16:13 58.06385 -22.04839 36251 ft 451 kts 276°
2026-05-05 16:14 58.06911 -22.28502 36255 ft 451 kts 276°
2026-05-05 16:15 58.07052 -22.35214 36266 ft 451 kts 276°
2026-05-05 16:16 58.07429 -22.54496 36340 ft 450 kts 276°
2026-05-05 16:17 58.07658 -22.66333 36617 ft 452 kts 276°
2026-05-05 16:17 58.07765 -22.72195 36816 ft 452 kts 275°
2026-05-05 16:18 58.07973 -22.84056 37150 ft 452 kts 275°
2026-05-05 16:18 58.08072 -22.90003 37306 ft 452 kts 275°
2026-05-05 16:18 58.08262 -23.01882 37636 ft 452 kts 275°
2026-05-05 16:19 58.08353 -23.07834 37790 ft 453 kts 275°
2026-05-05 16:19 58.08441 -23.13769 37940 ft 453 kts 275°
2026-05-05 16:19 58.08609 -23.25660 38166 ft 453 kts 275°
2026-05-05 16:20 58.08913 -23.49500 38248 ft 454 kts 274°
2026-05-05 16:22 58.09230 -23.79362 38246 ft 454 kts 274°
2026-05-05 16:23 58.09432 -24.03142 38243 ft 454 kts 274°
2026-05-05 16:23 58.09555 -24.21012 38238 ft 453 kts 274°
2026-05-05 16:24 58.09624 -24.32951 38240 ft 453 kts 274°
2026-05-05 16:25 58.09705 -24.50839 38246 ft 453 kts 274°
2026-05-05 16:25 58.09762 -24.68714 38242 ft 454 kts 273°
2026-05-05 16:26 58.09798 -24.92512 38244 ft 454 kts 273°
2026-05-05 16:27 58.09800 -25.04439 38237 ft 454 kts 273°
2026-05-05 16:27 58.09790 -25.16389 38242 ft 454 kts 273°
2026-05-05 16:28 58.09769 -25.28298 38243 ft 454 kts 273°
2026-05-05 16:28 58.09736 -25.40225 38285 ft 454 kts 275°
2026-05-05 16:29 58.09693 -25.52098 38243 ft 453 kts 274°
2026-05-05 16:29 58.09640 -25.64002 38243 ft 452 kts 274°
2026-05-05 16:30 58.09575 -25.75879 38247 ft 451 kts 274°
2026-05-05 16:30 58.09499 -25.87732 38244 ft 451 kts 274°
2026-05-05 16:31 58.09412 -25.99567 38241 ft 450 kts 274°
2026-05-05 16:31 58.09315 -26.11388 38238 ft 450 kts 274°
2026-05-05 16:32 58.09207 -26.23202 38240 ft 449 kts 274°
2026-05-05 16:32 58.09087 -26.35035 38241 ft 450 kts 274°
2026-05-05 16:33 58.08958 -26.46771 38240 ft 450 kts 274°
2026-05-05 16:33 58.08817 -26.58588 38241 ft 450 kts 274°
2026-05-05 16:34 58.08664 -26.70409 38243 ft 450 kts 273°
2026-05-05 16:34 58.08501 -26.82232 38239 ft 450 kts 273°
2026-05-05 16:35 58.08327 -26.94054 38237 ft 450 kts 273°
2026-05-05 16:35 58.08142 -27.05874 38249 ft 450 kts 273°
2026-05-05 16:36 58.07945 -27.17712 38237 ft 450 kts 273°
2026-05-05 16:36 58.07738 -27.29528 38242 ft 450 kts 273°
2026-05-05 16:37 58.07520 -27.41341 38233 ft 450 kts 272°
2026-05-05 16:37 58.07292 -27.53149 38228 ft 450 kts 272°
2026-05-05 16:38 58.07052 -27.64974 38229 ft 450 kts 272°
2026-05-05 16:38 58.06803 -27.76679 38232 ft 450 kts 272°
2026-05-05 16:39 58.06542 -27.88483 38228 ft 450 kts 272°
2026-05-05 16:39 58.06269 -28.00287 38235 ft 450 kts 272°
2026-05-05 16:40 58.05986 -28.12094 38234 ft 450 kts 272°
2026-05-05 16:40 58.05692 -28.23904 38236 ft 450 kts 271°
2026-05-05 16:41 58.05386 -28.35716 38239 ft 450 kts 271°
2026-05-05 16:41 58.05069 -28.47547 38236 ft 450 kts 271°
2026-05-05 16:42 58.04742 -28.59357 38237 ft 451 kts 271°
2026-05-05 16:42 58.04403 -28.71188 38239 ft 451 kts 271°
2026-05-05 16:43 58.04053 -28.82997 38241 ft 451 kts 271°
2026-05-05 16:43 58.03695 -28.94726 38239 ft 451 kts 271°
2026-05-05 16:44 58.03322 -29.06610 38237 ft 451 kts 270°
2026-05-05 16:44 58.02941 -29.18354 38233 ft 451 kts 270°
2026-05-05 16:45 58.02549 -29.30155 38242 ft 451 kts 270°
2026-05-05 16:45 58.02145 -29.41957 38246 ft 451 kts 270°
2026-05-05 16:46 58.01730 -29.53760 38235 ft 451 kts 270°
2026-05-05 16:46 58.01374 -29.63640 38243 ft 451 kts 270°
2026-05-05 16:47 58.00939 -29.75448 38241 ft 451 kts 270°
2026-05-05 16:47 58.00497 -29.87199 38239 ft 452 kts 269°
2026-05-05 16:48 58.00070 -29.99007 38241 ft 450 kts 272°
2026-05-05 16:48 58.00341 -30.10736 38245 ft 447 kts 277°
2026-05-05 16:49 58.00821 -30.22435 38242 ft 448 kts 277°
2026-05-05 16:49 58.01282 -30.34154 38245 ft 448 kts 277°
2026-05-05 16:50 58.01716 -30.45891 38243 ft 449 kts 277°
2026-05-05 16:50 58.02130 -30.57641 38241 ft 449 kts 277°
2026-05-05 16:51 58.02533 -30.69421 38245 ft 449 kts 276°
2026-05-05 16:51 58.02925 -30.81191 38240 ft 450 kts 276°
2026-05-05 16:52 58.03304 -30.92893 38247 ft 450 kts 276°
2026-05-05 16:52 58.03676 -31.04683 38239 ft 450 kts 276°
2026-05-05 16:53 58.04037 -31.16484 38244 ft 451 kts 276°
2026-05-05 16:53 58.04387 -31.28299 38250 ft 451 kts 276°
2026-05-05 16:54 58.04727 -31.40146 38241 ft 451 kts 276°
2026-05-05 16:54 58.05056 -31.51988 38245 ft 452 kts 275°
2026-05-05 16:55 58.05374 -31.63843 38247 ft 452 kts 275°
2026-05-05 16:55 58.05680 -31.75653 38243 ft 453 kts 275°
2026-05-05 16:56 58.05977 -31.87538 38243 ft 453 kts 275°
2026-05-05 16:56 58.06263 -31.99439 38247 ft 454 kts 275°
2026-05-05 16:57 58.06538 -32.11356 38245 ft 454 kts 275°
2026-05-05 16:57 58.06803 -32.23290 38244 ft 455 kts 275°
2026-05-05 16:58 58.07056 -32.35239 38246 ft 455 kts 274°
2026-05-05 16:58 58.07299 -32.47202 38245 ft 456 kts 274°
2026-05-05 16:59 58.07531 -32.59177 38250 ft 456 kts 274°
2026-05-05 16:59 58.07752 -32.71165 38247 ft 457 kts 274°
2026-05-05 17:00 58.07961 -32.83166 38249 ft 457 kts 274°
2026-05-05 17:00 58.08160 -32.95178 38248 ft 458 kts 274°
2026-05-05 17:01 58.08347 -33.07204 38240 ft 458 kts 273°
2026-05-05 17:01 58.08523 -33.19242 38242 ft 458 kts 273°
2026-05-05 17:02 58.08688 -33.31288 38248 ft 459 kts 273°
2026-05-05 17:02 58.08842 -33.43343 38245 ft 459 kts 273°
2026-05-05 17:03 58.08984 -33.55409 38239 ft 459 kts 272°
2026-05-05 17:03 58.09115 -33.67423 38241 ft 460 kts 272°
2026-05-05 17:04 58.09234 -33.79508 38248 ft 460 kts 272°
2026-05-05 17:04 58.09343 -33.91610 38238 ft 461 kts 272°
2026-05-05 17:05 58.09440 -34.03729 38239 ft 461 kts 272°
2026-05-05 17:05 58.09526 -34.15881 38232 ft 462 kts 272°
2026-05-05 17:06 58.09600 -34.28029 38236 ft 462 kts 271°
2026-05-05 17:06 58.09663 -34.40192 38235 ft 463 kts 271°
2026-05-05 17:07 58.09714 -34.52371 38239 ft 464 kts 271°
2026-05-05 17:07 58.09754 -34.64485 38236 ft 464 kts 271°
2026-05-05 17:08 58.09782 -34.76717 38239 ft 465 kts 271°
2026-05-05 17:08 58.09798 -34.88943 38241 ft 465 kts 270°
2026-05-05 17:09 58.09803 -35.01184 38232 ft 466 kts 270°
2026-05-05 17:09 58.09796 -35.13442 38230 ft 467 kts 270°
2026-05-05 17:10 58.09777 -35.25713 38234 ft 467 kts 270°
2026-05-05 17:10 58.09747 -35.37999 38234 ft 468 kts 270°
2026-05-05 17:11 58.09704 -35.50319 38235 ft 468 kts 270°
2026-05-05 17:11 58.09650 -35.62631 38227 ft 469 kts 270°
2026-05-05 17:12 58.09583 -35.74954 38235 ft 469 kts 269°
2026-05-05 17:12 58.09505 -35.87226 38227 ft 469 kts 269°
2026-05-05 17:13 58.09415 -35.99569 38229 ft 470 kts 269°
2026-05-05 17:13 58.09313 -36.11921 38234 ft 470 kts 269°
2026-05-05 17:14 58.09198 -36.24304 38225 ft 471 kts 269°
2026-05-05 17:14 58.09072 -36.36674 38225 ft 471 kts 268°
2026-05-05 17:15 58.08933 -36.49030 38224 ft 471 kts 268°
2026-05-05 17:15 58.08784 -36.61347 38229 ft 471 kts 268°
2026-05-05 17:16 58.08621 -36.73725 38229 ft 471 kts 268°
2026-05-05 17:16 58.08447 -36.86102 38225 ft 471 kts 268°
2026-05-05 17:17 58.08261 -36.98477 38221 ft 471 kts 268°
2026-05-05 17:17 58.08062 -37.10852 38225 ft 471 kts 267°
2026-05-05 17:18 58.07852 -37.23232 38219 ft 472 kts 267°
2026-05-05 17:18 58.07629 -37.35618 38219 ft 472 kts 267°
2026-05-05 17:19 58.07394 -37.48032 38214 ft 472 kts 267°
2026-05-05 17:19 58.07146 -37.60436 38215 ft 473 kts 266°
2026-05-05 17:20 58.06887 -37.72849 38214 ft 473 kts 266°
2026-05-05 17:20 58.06615 -37.85277 38213 ft 474 kts 266°
2026-05-05 17:21 58.06331 -37.97720 38214 ft 475 kts 266°
2026-05-05 17:22 58.05880 -38.16429 38203 ft 476 kts 266°
2026-05-05 17:22 58.05566 -38.28834 38204 ft 476 kts 266°
2026-05-05 17:23 58.05238 -38.41336 38205 ft 477 kts 265°
2026-05-05 17:23 58.04897 -38.53848 38198 ft 477 kts 265°
2026-05-05 17:24 58.04542 -38.66386 38198 ft 478 kts 265°
2026-05-05 17:24 58.04176 -38.78906 38193 ft 478 kts 265°
2026-05-05 17:25 58.03798 -38.91428 38190 ft 478 kts 265°
2026-05-05 17:25 58.03407 -39.03952 38188 ft 478 kts 265°
2026-05-05 17:26 58.03003 -39.16480 38183 ft 478 kts 265°
2026-05-05 17:26 58.02589 -39.28953 38181 ft 479 kts 264°
2026-05-05 17:27 58.02161 -39.41495 38176 ft 479 kts 264°
2026-05-05 17:27 58.01720 -39.54046 38173 ft 480 kts 264°
2026-05-05 17:28 58.01266 -39.66606 38172 ft 480 kts 264°
2026-05-05 17:28 58.00799 -39.79176 38171 ft 481 kts 264°
2026-05-05 17:29 58.00320 -39.91779 38168 ft 481 kts 264°
2026-05-05 17:29 57.99805 -40.04365 38172 ft 481 kts 262°
2026-05-05 17:30 57.99072 -40.16907 38163 ft 481 kts 261°
2026-05-05 17:30 57.98267 -40.29439 38162 ft 482 kts 261°
2026-05-05 17:31 57.97470 -40.41986 38155 ft 483 kts 261°
2026-05-05 17:31 57.96681 -40.54549 38153 ft 483 kts 261°
2026-05-05 17:32 57.95890 -40.67059 38149 ft 484 kts 260°
2026-05-05 17:32 57.95082 -40.79643 38145 ft 484 kts 260°
2026-05-05 17:33 57.94259 -40.92237 38139 ft 485 kts 260°
2026-05-05 17:33 57.93421 -41.04844 38140 ft 486 kts 260°
2026-05-05 17:34 57.92570 -41.17466 38129 ft 487 kts 259°
2026-05-05 17:34 57.91703 -41.30125 38125 ft 488 kts 259°
2026-05-05 17:35 57.90974 -41.40633 38122 ft 488 kts 259°
2026-05-05 17:35 57.90082 -41.53307 38115 ft 489 kts 259°
2026-05-05 17:36 57.89176 -41.66001 38115 ft 491 kts 259°
2026-05-05 17:36 57.88255 -41.78718 38105 ft 492 kts 259°
2026-05-05 17:37 57.87318 -41.91473 38104 ft 492 kts 259°
2026-05-05 17:37 57.86367 -42.04242 38099 ft 493 kts 258°
2026-05-05 17:38 57.85403 -42.17005 38101 ft 494 kts 258°
2026-05-05 17:38 57.84431 -42.29698 38090 ft 495 kts 258°
2026-05-05 17:39 57.83438 -42.42488 38081 ft 495 kts 258°
2026-05-05 17:39 57.82432 -42.55284 38081 ft 496 kts 258°
2026-05-05 17:40 57.81411 -42.68083 38079 ft 496 kts 258°
2026-05-05 17:40 57.80377 -42.80882 38077 ft 497 kts 258°
2026-05-05 17:41 57.79329 -42.93691 38077 ft 498 kts 258°
2026-05-05 17:41 57.78265 -43.06527 38069 ft 499 kts 257°
2026-05-05 17:42 57.77186 -43.19375 38046 ft 499 kts 257°
2026-05-05 17:42 57.76097 -43.32193 38048 ft 498 kts 257°
2026-05-05 17:43 57.74997 -43.44983 38049 ft 497 kts 257°
2026-05-05 17:43 57.73885 -43.57746 38044 ft 496 kts 257°
2026-05-05 17:44 57.72761 -43.70485 38045 ft 496 kts 257°
2026-05-05 17:44 57.71626 -43.83207 38038 ft 496 kts 257°
2026-05-05 17:45 57.70478 -43.95912 38034 ft 495 kts 257°
2026-05-05 17:45 57.69317 -44.08620 38029 ft 495 kts 256°
2026-05-05 17:46 57.68154 -44.21206 38025 ft 495 kts 256°
2026-05-05 17:46 57.66971 -44.33858 38020 ft 494 kts 256°
2026-05-05 17:47 57.65777 -44.46490 38013 ft 494 kts 256°
2026-05-05 17:47 57.64571 -44.59105 38008 ft 493 kts 256°
2026-05-05 17:48 57.63353 -44.71705 38006 ft 493 kts 256°
2026-05-05 17:48 57.62123 -44.84295 38002 ft 493 kts 256°
2026-05-05 17:49 57.60880 -44.96878 37999 ft 493 kts 256°
2026-05-05 17:49 57.59624 -45.09459 37995 ft 494 kts 256°
2026-05-05 17:50 57.58352 -45.22060 37989 ft 494 kts 256°
2026-05-05 17:50 57.57070 -45.34641 37986 ft 494 kts 256°
2026-05-05 17:51 57.55773 -45.47226 37985 ft 495 kts 256°
2026-05-05 17:51 57.54462 -45.59814 37970 ft 495 kts 255°
2026-05-05 17:52 57.53138 -45.72404 37969 ft 496 kts 255°
2026-05-05 17:52 57.51800 -45.84993 37962 ft 496 kts 255°
2026-05-05 17:53 57.50456 -45.97516 37957 ft 496 kts 255°
2026-05-05 17:53 57.49093 -46.10096 37954 ft 496 kts 255°
2026-05-05 17:54 57.47716 -46.22671 37945 ft 497 kts 255°
2026-05-05 17:54 57.46327 -46.35243 37939 ft 497 kts 255°
2026-05-05 17:55 57.44925 -46.47807 37932 ft 497 kts 255°
2026-05-05 17:55 57.43509 -46.60364 37929 ft 497 kts 255°
2026-05-05 17:56 57.42082 -46.72912 37930 ft 497 kts 255°
2026-05-05 17:56 57.40649 -46.85386 37908 ft 497 kts 254°
2026-05-05 17:57 57.39196 -46.97914 37918 ft 497 kts 254°
2026-05-05 17:57 57.37731 -47.10435 37899 ft 497 kts 254°
2026-05-05 17:58 57.36252 -47.22952 37890 ft 497 kts 254°
2026-05-05 17:58 57.34761 -47.35465 37894 ft 498 kts 254°
2026-05-05 17:59 57.33256 -47.47973 37883 ft 498 kts 254°
2026-05-05 17:59 57.31738 -47.60478 37876 ft 498 kts 254°
2026-05-05 18:00 57.30207 -47.72981 37871 ft 498 kts 254°
2026-05-05 18:00 57.28662 -47.85479 37863 ft 499 kts 254°
2026-05-05 18:01 57.27105 -47.97973 37858 ft 499 kts 253°
2026-05-05 18:01 57.25531 -48.10484 37851 ft 499 kts 253°
2026-05-05 18:02 57.23950 -48.22950 37846 ft 500 kts 253°
2026-05-05 18:02 57.22363 -48.35352 37833 ft 500 kts 253°
2026-05-05 18:03 57.20749 -48.47855 37831 ft 500 kts 253°
2026-05-05 18:03 57.19125 -48.60332 37823 ft 500 kts 253°
2026-05-05 18:04 57.17485 -48.72821 37815 ft 500 kts 253°
2026-05-05 18:04 57.15835 -48.85283 37812 ft 501 kts 253°
2026-05-05 18:05 57.14172 -48.97739 37813 ft 501 kts 253°
2026-05-05 18:05 57.12497 -49.10184 37791 ft 501 kts 253°
2026-05-05 18:06 57.10810 -49.22620 37786 ft 501 kts 253°
2026-05-05 18:06 57.09107 -49.35068 37780 ft 501 kts 253°
2026-05-05 18:07 57.07406 -49.47402 37777 ft 501 kts 252°
2026-05-05 18:07 57.05681 -49.59805 37771 ft 501 kts 252°
2026-05-05 18:08 57.03945 -49.72196 37759 ft 501 kts 252°
2026-05-05 18:08 57.02198 -49.84572 37754 ft 501 kts 252°
2026-05-05 18:09 57.00429 -49.96947 37748 ft 500 kts 251°
2026-05-05 18:09 56.97998 -50.08811 37746 ft 496 kts 243°
2026-05-05 18:10 56.95162 -50.20317 37739 ft 495 kts 242°
2026-05-05 18:10 56.92318 -50.31810 37730 ft 496 kts 243°
2026-05-05 18:11 56.89494 -50.43319 37719 ft 496 kts 243°
2026-05-05 18:11 56.86669 -50.54841 37712 ft 496 kts 243°
2026-05-05 18:12 56.83841 -50.66328 37706 ft 496 kts 243°
2026-05-05 18:12 56.81020 -50.77720 37699 ft 496 kts 243°
2026-05-05 18:13 56.78169 -50.89169 37692 ft 496 kts 242°
2026-05-05 18:13 56.75308 -51.00598 37687 ft 496 kts 242°
2026-05-05 18:14 56.72431 -51.12028 37681 ft 495 kts 242°
2026-05-05 18:14 56.69550 -51.23417 37672 ft 495 kts 242°
2026-05-05 18:15 56.66665 -51.34767 37669 ft 495 kts 242°
2026-05-05 18:15 56.63761 -51.46131 37659 ft 495 kts 242°
2026-05-05 18:16 56.60853 -51.57455 37663 ft 495 kts 242°
2026-05-05 18:16 56.57936 -51.68756 37652 ft 494 kts 242°
2026-05-05 18:17 56.55008 -51.80038 37644 ft 494 kts 242°
2026-05-05 18:17 56.52072 -51.91296 37634 ft 494 kts 242°
2026-05-05 18:18 56.49149 -52.02455 37634 ft 494 kts 242°
2026-05-05 18:18 56.46197 -52.13661 37622 ft 493 kts 241°
2026-05-05 18:19 56.43233 -52.24863 37624 ft 493 kts 242°
2026-05-05 18:19 56.40264 -52.36023 37618 ft 493 kts 242°
2026-05-05 18:20 56.37285 -52.47162 37615 ft 493 kts 241°
2026-05-05 18:20 56.34300 -52.58275 37613 ft 492 kts 241°
2026-05-05 18:21 56.31308 -52.69360 37605 ft 492 kts 241°
2026-05-05 18:21 56.28310 -52.80417 37603 ft 491 kts 241°
2026-05-05 18:22 56.25303 -52.91448 37608 ft 491 kts 241°
2026-05-05 18:22 56.22290 -53.02450 37583 ft 490 kts 241°
2026-05-05 18:23 56.19776 -53.11582 37595 ft 490 kts 241°
2026-05-05 18:23 56.16751 -53.22537 37598 ft 489 kts 241°
2026-05-05 18:24 56.13717 -53.33462 37580 ft 489 kts 241°
2026-05-05 18:24 56.10672 -53.44377 37576 ft 489 kts 241°
2026-05-05 18:25 56.07625 -53.55247 37573 ft 488 kts 241°
2026-05-05 18:25 56.04572 -53.66090 37567 ft 488 kts 240°
2026-05-05 18:26 56.01513 -53.76905 37564 ft 487 kts 240°
2026-05-05 18:26 55.98463 -53.87639 37563 ft 487 kts 240°
2026-05-05 18:27 55.95368 -53.98470 37555 ft 486 kts 241°
2026-05-05 18:27 55.92310 -54.09132 37555 ft 486 kts 240°
2026-05-05 18:28 55.87679 -54.25184 37551 ft 485 kts 240°
2026-05-05 18:28 55.84585 -54.35844 37546 ft 484 kts 240°
2026-05-05 18:29 55.81485 -54.46476 37544 ft 484 kts 240°
2026-05-05 18:29 55.78380 -54.57082 37541 ft 483 kts 240°
2026-05-05 18:30 55.75267 -54.67661 37539 ft 483 kts 240°
2026-05-05 18:30 55.72147 -54.78219 37540 ft 483 kts 240°
2026-05-05 18:31 55.69020 -54.88756 37534 ft 483 kts 240°
2026-05-05 18:31 55.65884 -54.99272 37537 ft 483 kts 240°
2026-05-05 18:32 55.62740 -55.09769 37531 ft 483 kts 240°
2026-05-05 18:32 55.59587 -55.20249 37531 ft 482 kts 240°
2026-05-05 18:33 55.56426 -55.30710 37529 ft 482 kts 240°
2026-05-05 18:33 55.53278 -55.41083 37530 ft 482 kts 240°
2026-05-05 18:34 55.50095 -55.51525 37530 ft 482 kts 240°
2026-05-05 18:34 55.46909 -55.61930 37528 ft 482 kts 240°
2026-05-05 18:35 55.43715 -55.72316 37527 ft 482 kts 240°
2026-05-05 18:35 55.40513 -55.82682 37530 ft 482 kts 240°
2026-05-05 18:36 55.37299 -55.93046 37527 ft 482 kts 240°
2026-05-05 18:36 55.34081 -56.03372 37529 ft 482 kts 240°
2026-05-05 18:37 55.30855 -56.13681 37526 ft 482 kts 240°
2026-05-05 18:37 55.27622 -56.23970 37529 ft 481 kts 240°
2026-05-05 18:38 55.24380 -56.34240 37529 ft 481 kts 240°
2026-05-05 18:38 55.21131 -56.44491 37531 ft 481 kts 240°
2026-05-05 18:39 55.17874 -56.54723 37529 ft 481 kts 240°
2026-05-05 18:39 55.14610 -56.64936 37530 ft 481 kts 240°
2026-05-05 18:40 55.11339 -56.75129 37531 ft 481 kts 240°
2026-05-05 18:40 55.08063 -56.85301 37526 ft 480 kts 240°
2026-05-05 18:41 55.04903 -56.95582 37520 ft 480 kts 247°
2026-05-05 18:41 55.03014 -57.06655 37534 ft 481 kts 259°
2026-05-05 18:42 55.02337 -57.18241 37533 ft 481 kts 265°
2026-05-05 18:42 55.01869 -57.29865 37529 ft 481 kts 265°
2026-05-05 18:43 55.01371 -57.41480 37525 ft 481 kts 265°
2026-05-05 18:43 55.00828 -57.53082 37524 ft 480 kts 264°
2026-05-05 18:44 55.00259 -57.64674 37523 ft 480 kts 264°
2026-05-05 18:44 54.99678 -57.76257 37525 ft 480 kts 264°
2026-05-05 18:45 54.99086 -57.87851 37520 ft 480 kts 264°
2026-05-05 18:45 54.98485 -57.99418 37518 ft 480 kts 264°
2026-05-05 18:46 54.97879 -58.10901 37512 ft 479 kts 264°
2026-05-05 18:46 54.97257 -58.22453 37507 ft 479 kts 264°
2026-05-05 18:47 54.96625 -58.33998 37507 ft 479 kts 264°
2026-05-05 18:47 54.95982 -58.45535 37501 ft 479 kts 264°
2026-05-05 18:48 54.95327 -58.57083 37494 ft 479 kts 264°
2026-05-05 18:48 54.94662 -58.68603 37490 ft 478 kts 264°
2026-05-05 18:49 54.93987 -58.80113 37470 ft 478 kts 263°
2026-05-05 18:49 54.93303 -58.91608 37466 ft 478 kts 263°
2026-05-05 18:50 54.92608 -59.03088 37467 ft 477 kts 263°
2026-05-05 18:50 54.91902 -59.14552 37466 ft 477 kts 263°
2026-05-05 18:51 54.91186 -59.26016 37465 ft 476 kts 263°
2026-05-05 18:51 54.90461 -59.37443 37467 ft 475 kts 263°
2026-05-05 18:52 54.89725 -59.48853 37470 ft 475 kts 263°
2026-05-05 18:52 54.88986 -59.60174 37469 ft 475 kts 263°
2026-05-05 18:53 54.88231 -59.71554 37467 ft 474 kts 262°
2026-05-05 18:53 54.87466 -59.82917 37471 ft 474 kts 262°
2026-05-05 18:54 54.86692 -59.94267 37471 ft 473 kts 262°
2026-05-05 18:54 54.85907 -60.05604 37473 ft 473 kts 262°
2026-05-05 18:55 54.85112 -60.16931 37473 ft 473 kts 262°
2026-05-05 18:55 54.84308 -60.28249 37477 ft 472 kts 262°
2026-05-05 18:56 54.83491 -60.39575 37478 ft 472 kts 262°
2026-05-05 18:56 54.82666 -60.50871 37481 ft 472 kts 262°
2026-05-05 18:57 54.81831 -60.62157 37486 ft 472 kts 262°
2026-05-05 18:57 54.80986 -60.73428 37485 ft 471 kts 262°
2026-05-05 18:58 54.80130 -60.84707 37490 ft 471 kts 262°
2026-05-05 18:58 54.79267 -60.95939 37493 ft 471 kts 262°
2026-05-05 18:59 54.78392 -61.07182 37497 ft 471 kts 261°
2026-05-05 18:59 54.77511 -61.18359 37496 ft 470 kts 261°
2026-05-05 19:00 54.76616 -61.29581 37501 ft 470 kts 261°
2026-05-05 19:00 54.75711 -61.40798 37502 ft 470 kts 261°
2026-05-05 19:01 54.74794 -61.52027 37506 ft 470 kts 261°
2026-05-05 19:01 54.73869 -61.63229 37508 ft 470 kts 261°
2026-05-05 19:02 54.72933 -61.74422 37507 ft 470 kts 261°
2026-05-05 19:02 54.71988 -61.85603 37514 ft 470 kts 261°
2026-05-05 19:03 54.71033 -61.96773 37531 ft 469 kts 261°
2026-05-05 19:03 54.70068 -62.07931 37532 ft 469 kts 261°
2026-05-05 19:04 54.69093 -62.19079 37540 ft 469 kts 261°
2026-05-05 19:04 54.68107 -62.30246 37539 ft 469 kts 260°
2026-05-05 19:05 54.67118 -62.41321 37533 ft 470 kts 260°
2026-05-05 19:05 54.66111 -62.52469 37533 ft 470 kts 260°
2026-05-05 19:06 54.65094 -62.63611 37537 ft 470 kts 260°
2026-05-05 19:06 54.64067 -62.74749 37535 ft 470 kts 260°
2026-05-05 19:07 54.63205 -62.84012 37537 ft 470 kts 260°
2026-05-05 19:07 54.61981 -62.97019 37537 ft 470 kts 260°
2026-05-05 19:08 54.61101 -63.06281 37538 ft 470 kts 259°
2026-05-05 19:08 54.60034 -63.17406 37541 ft 470 kts 259°
2026-05-05 19:09 54.58958 -63.28515 37534 ft 469 kts 259°
2026-05-05 19:09 54.57872 -63.39609 37529 ft 469 kts 259°
2026-05-05 19:10 54.56779 -63.50681 37531 ft 468 kts 259°
2026-05-05 19:10 54.55676 -63.61727 37525 ft 467 kts 259°
2026-05-05 19:11 54.54571 -63.72697 37521 ft 467 kts 259°
2026-05-05 19:11 54.53452 -63.83700 37520 ft 466 kts 259°
2026-05-05 19:12 54.52324 -63.94685 37518 ft 466 kts 258°
2026-05-05 19:12 54.51187 -64.05653 37512 ft 465 kts 258°
2026-05-05 19:13 54.50042 -64.16608 37508 ft 465 kts 258°
2026-05-05 19:13 54.48885 -64.27571 37501 ft 465 kts 258°
2026-05-05 19:14 54.47720 -64.38505 37495 ft 465 kts 258°
2026-05-05 19:14 54.46546 -64.49426 37490 ft 464 kts 258°
2026-05-05 19:15 54.45370 -64.60272 37480 ft 465 kts 258°
2026-05-05 19:15 54.44175 -64.71191 37476 ft 465 kts 258°
2026-05-05 19:16 54.42970 -64.82108 37463 ft 465 kts 258°
2026-05-05 19:16 54.41756 -64.93016 37463 ft 465 kts 258°
2026-05-05 19:17 54.40531 -65.03922 37456 ft 465 kts 258°
2026-05-05 19:17 54.39295 -65.14827 37447 ft 466 kts 257°
2026-05-05 19:18 54.38051 -65.25727 37454 ft 465 kts 257°
2026-05-05 19:18 54.36795 -65.36619 37449 ft 465 kts 257°
2026-05-05 19:19 54.35531 -65.47505 37448 ft 466 kts 257°
2026-05-05 19:19 54.34256 -65.58387 37448 ft 466 kts 257°
2026-05-05 19:20 54.32970 -65.69277 37449 ft 465 kts 257°
2026-05-05 19:20 54.31676 -65.80141 37445 ft 465 kts 257°
2026-05-05 19:21 54.30379 -65.90942 37442 ft 465 kts 257°
2026-05-05 19:21 54.29066 -66.01789 37442 ft 465 kts 257°
2026-05-05 19:22 54.27744 -66.12624 37442 ft 465 kts 256°
2026-05-05 19:22 54.26413 -66.23448 37441 ft 465 kts 256°
2026-05-05 19:23 54.25073 -66.34254 37445 ft 464 kts 256°
2026-05-05 19:23 54.23726 -66.45042 37444 ft 464 kts 256°
2026-05-05 19:24 54.22369 -66.55817 37448 ft 464 kts 256°
2026-05-05 19:24 54.21004 -66.66583 37433 ft 464 kts 256°
2026-05-05 19:25 54.19628 -66.77346 37439 ft 464 kts 256°
2026-05-05 19:25 54.18243 -66.88112 37442 ft 464 kts 256°
2026-05-05 19:26 54.16877 -66.98889 37450 ft 465 kts 258°
2026-05-05 19:26 54.16214 -67.09891 37447 ft 467 kts 264°
2026-05-05 19:27 54.15797 -67.20901 37457 ft 468 kts 264°
2026-05-05 19:27 54.15360 -67.31973 37449 ft 468 kts 264°
2026-05-05 19:28 54.14892 -67.43048 37457 ft 468 kts 263°
2026-05-05 19:28 54.14403 -67.54127 37446 ft 469 kts 263°
2026-05-05 19:29 54.13899 -67.65281 37447 ft 469 kts 263°
2026-05-05 19:29 54.13391 -67.76287 37439 ft 469 kts 263°
2026-05-05 19:30 54.12872 -67.87362 37447 ft 469 kts 263°
2026-05-05 19:30 54.12342 -67.98434 37452 ft 469 kts 263°
2026-05-05 19:31 54.11802 -68.09504 37440 ft 469 kts 263°
2026-05-05 19:31 54.11252 -68.20565 37444 ft 468 kts 263°
2026-05-05 19:32 54.10691 -68.31636 37443 ft 468 kts 262°
2026-05-05 19:32 54.10121 -68.42683 37443 ft 468 kts 262°
2026-05-05 19:33 54.09541 -68.53728 37438 ft 468 kts 262°
2026-05-05 19:33 54.08952 -68.64752 37439 ft 468 kts 262°
2026-05-05 19:34 54.08355 -68.75733 37436 ft 468 kts 262°
2026-05-05 19:35 54.07437 -68.92278 37441 ft 468 kts 262°
2026-05-05 19:35 54.06811 -69.03312 37429 ft 468 kts 262°
2026-05-05 19:36 54.06175 -69.14342 37440 ft 468 kts 262°
2026-05-05 19:36 54.05528 -69.25389 37432 ft 468 kts 262°
2026-05-05 19:37 54.04872 -69.36421 37436 ft 468 kts 261°
2026-05-05 19:37 54.04206 -69.47448 37429 ft 468 kts 261°
2026-05-05 19:38 54.03528 -69.58490 37436 ft 469 kts 261°
2026-05-05 19:38 54.02842 -69.69498 37434 ft 469 kts 261°
2026-05-05 19:39 54.02143 -69.80547 37432 ft 469 kts 261°
2026-05-05 19:39 54.01439 -69.91528 37429 ft 470 kts 261°
2026-05-05 19:40 54.00721 -70.02554 37430 ft 470 kts 261°
2026-05-05 19:40 53.99990 -70.13621 37429 ft 471 kts 261°
2026-05-05 19:41 53.99249 -70.24673 37429 ft 471 kts 261°
2026-05-05 19:41 53.98498 -70.35730 37429 ft 471 kts 260°
2026-05-05 19:42 53.97735 -70.46813 37422 ft 472 kts 260°
2026-05-05 19:42 53.96962 -70.57883 37418 ft 472 kts 260°
2026-05-05 19:43 53.96178 -70.68958 37412 ft 472 kts 260°
2026-05-05 19:43 53.95384 -70.80035 37408 ft 473 kts 260°
2026-05-05 19:44 53.94579 -70.91114 37417 ft 473 kts 260°
2026-05-05 19:44 53.93764 -71.02193 37405 ft 473 kts 260°
2026-05-05 19:45 53.92943 -71.13200 37399 ft 473 kts 260°
2026-05-05 19:45 53.92106 -71.24284 37406 ft 474 kts 260°
2026-05-05 19:46 53.91259 -71.35373 37397 ft 474 kts 259°
2026-05-05 19:46 53.90400 -71.46462 37398 ft 474 kts 259°
2026-05-05 19:47 53.89531 -71.57556 37387 ft 475 kts 259°
2026-05-05 19:47 53.88651 -71.68652 37386 ft 475 kts 259°
2026-05-05 19:48 53.87760 -71.79746 37383 ft 475 kts 259°
2026-05-05 19:48 53.86859 -71.90839 37376 ft 475 kts 259°
2026-05-05 19:49 53.85948 -72.01932 37375 ft 476 kts 259°
2026-05-05 19:49 53.85023 -72.13048 37374 ft 476 kts 259°
2026-05-05 19:50 53.84090 -72.24136 37375 ft 477 kts 259°
2026-05-05 19:50 53.83144 -72.35262 37369 ft 477 kts 259°
2026-05-05 19:51 53.82189 -72.46366 37368 ft 477 kts 259°
2026-05-05 19:51 53.81224 -72.57463 37378 ft 477 kts 259°
2026-05-05 19:52 53.80255 -72.68482 37374 ft 477 kts 259°
2026-05-05 19:52 53.79269 -72.79571 37377 ft 477 kts 259°
2026-05-05 19:53 53.78272 -72.90659 37383 ft 477 kts 259°
2026-05-05 19:53 53.77265 -73.01745 37389 ft 477 kts 259°
2026-05-05 19:54 53.76247 -73.12829 37388 ft 477 kts 259°
2026-05-05 19:54 53.75219 -73.23913 37385 ft 477 kts 259°
2026-05-05 19:55 53.74181 -73.34994 37384 ft 478 kts 258°
2026-05-05 19:55 53.73130 -73.46090 37390 ft 478 kts 258°
2026-05-05 19:56 53.72069 -73.57172 37379 ft 478 kts 258°
2026-05-05 19:56 53.71004 -73.68192 37380 ft 478 kts 258°
2026-05-05 19:57 53.69923 -73.79262 37383 ft 478 kts 258°
2026-05-05 19:57 53.68833 -73.90323 37372 ft 478 kts 258°
2026-05-05 19:58 53.67733 -74.01370 37393 ft 477 kts 258°
2026-05-05 19:58 53.66812 -74.10536 37387 ft 477 kts 258°
2026-05-05 19:59 53.65692 -74.21581 37412 ft 477 kts 258°
2026-05-05 19:59 53.64567 -74.32580 37418 ft 477 kts 258°
2026-05-05 20:00 53.63427 -74.43616 37406 ft 477 kts 258°
2026-05-05 20:00 53.62279 -74.54629 37406 ft 477 kts 258°
2026-05-05 20:01 53.61121 -74.65635 37405 ft 477 kts 258°
2026-05-05 20:01 53.59950 -74.76656 37404 ft 477 kts 258°
2026-05-05 20:02 53.58771 -74.87658 37406 ft 478 kts 258°
2026-05-05 20:02 53.57581 -74.98660 37410 ft 478 kts 258°
2026-05-05 20:03 53.56380 -75.09660 37403 ft 478 kts 258°
2026-05-05 20:03 53.55177 -75.20586 37407 ft 478 kts 257°
2026-05-05 20:04 53.53956 -75.31577 37414 ft 478 kts 257°
2026-05-05 20:04 53.52724 -75.42563 37414 ft 478 kts 257°
2026-05-05 20:05 53.51483 -75.53545 37415 ft 478 kts 257°
2026-05-05 20:05 53.50229 -75.64540 37420 ft 478 kts 257°
2026-05-05 20:06 53.48967 -75.75512 37420 ft 478 kts 257°
2026-05-05 20:06 53.47695 -75.86477 37427 ft 478 kts 257°
2026-05-05 20:07 53.46413 -75.97434 37432 ft 478 kts 257°
2026-05-05 20:07 53.45119 -76.08388 37442 ft 479 kts 256°
2026-05-05 20:08 53.43816 -76.19342 37444 ft 479 kts 256°
2026-05-05 20:08 53.42502 -76.30294 37443 ft 479 kts 256°
2026-05-05 20:09 53.41178 -76.41247 37446 ft 480 kts 256°
2026-05-05 20:09 53.39842 -76.52198 37449 ft 480 kts 256°
2026-05-05 20:10 53.38496 -76.63144 37455 ft 480 kts 256°
2026-05-05 20:10 53.37141 -76.74086 37452 ft 480 kts 256°
2026-05-05 20:11 53.35775 -76.85022 37455 ft 480 kts 256°
2026-05-05 20:11 53.34407 -76.95879 37457 ft 480 kts 256°
2026-05-05 20:12 53.33021 -77.06804 37458 ft 480 kts 256°
2026-05-05 20:12 53.31625 -77.17726 37453 ft 480 kts 256°
2026-05-05 20:13 53.30216 -77.28643 37455 ft 480 kts 256°
2026-05-05 20:13 53.28800 -77.39550 37451 ft 480 kts 255°
2026-05-05 20:14 53.27371 -77.50463 37457 ft 480 kts 256°
2026-05-05 20:14 53.25936 -77.61347 37456 ft 480 kts 255°
2026-05-05 20:15 53.24491 -77.72219 37463 ft 480 kts 255°
2026-05-05 20:15 53.23035 -77.83084 37459 ft 480 kts 255°
2026-05-05 20:16 53.21569 -77.93960 37467 ft 480 kts 255°
2026-05-05 20:16 53.20095 -78.04809 37460 ft 479 kts 255°
2026-05-05 20:17 53.18622 -78.15573 37458 ft 479 kts 255°
2026-05-05 20:17 53.17128 -78.26417 37466 ft 479 kts 255°
2026-05-05 20:18 53.15625 -78.37233 37468 ft 479 kts 255°
2026-05-05 20:18 53.14112 -78.48043 37471 ft 479 kts 255°
2026-05-05 20:19 53.12589 -78.58847 37471 ft 479 kts 255°
2026-05-05 20:19 53.11057 -78.69647 37464 ft 479 kts 255°
2026-05-05 20:20 53.09513 -78.80443 37462 ft 480 kts 255°
2026-05-05 20:20 53.07967 -78.91182 37457 ft 480 kts 255°
2026-05-05 20:21 53.06401 -79.01990 37454 ft 480 kts 255°
2026-05-05 20:21 53.04827 -79.12775 37448 ft 480 kts 255°
2026-05-05 20:22 53.03243 -79.23555 37450 ft 480 kts 255°
2026-05-05 20:22 53.01649 -79.34328 37443 ft 480 kts 255°
2026-05-05 20:23 53.00524 -79.41889 37444 ft 480 kts 254°
2026-05-05 20:23 52.98912 -79.52654 37435 ft 480 kts 254°
2026-05-05 20:24 52.97291 -79.63419 37437 ft 481 kts 254°
2026-05-05 20:24 52.95660 -79.74173 37433 ft 481 kts 254°
2026-05-05 20:25 52.94029 -79.84850 37431 ft 481 kts 254°
2026-05-05 20:25 52.92381 -79.95590 37429 ft 481 kts 254°
2026-05-05 20:26 52.90639 -80.06284 37429 ft 480 kts 251°
2026-05-05 20:26 52.88616 -80.16824 37428 ft 480 kts 250°
2026-05-05 20:27 52.86544 -80.27333 37421 ft 480 kts 250°
2026-05-05 20:27 52.84498 -80.37851 37422 ft 480 kts 251°
2026-05-05 20:28 52.82467 -80.48380 37421 ft 480 kts 251°
2026-05-05 20:28 52.80434 -80.58898 37421 ft 480 kts 251°
2026-05-05 20:29 52.78391 -80.69413 37422 ft 480 kts 251°
2026-05-05 20:29 52.76336 -80.79914 37418 ft 480 kts 251°
2026-05-05 20:30 52.74272 -80.90402 37422 ft 480 kts 251°
2026-05-05 20:30 52.72199 -81.00886 37417 ft 480 kts 251°
2026-05-05 20:31 52.70129 -81.11293 37423 ft 480 kts 251°
2026-05-05 20:31 52.68037 -81.21755 37420 ft 480 kts 251°
2026-05-05 20:32 52.65938 -81.32199 37417 ft 480 kts 250°
2026-05-05 20:32 52.63827 -81.42643 37421 ft 480 kts 250°
2026-05-05 20:33 52.61710 -81.53064 37417 ft 480 kts 250°
2026-05-05 20:33 52.59582 -81.63480 37419 ft 480 kts 250°
2026-05-05 20:34 52.57447 -81.73881 37425 ft 480 kts 250°
2026-05-05 20:34 52.55302 -81.84275 37425 ft 480 kts 250°
2026-05-05 20:35 52.53147 -81.94658 37423 ft 480 kts 250°
2026-05-05 20:35 52.50984 -82.05034 37428 ft 480 kts 250°
2026-05-05 20:36 52.48809 -82.15405 37422 ft 480 kts 250°
2026-05-05 20:36 52.46627 -82.25760 37424 ft 480 kts 250°
2026-05-05 20:37 52.44439 -82.36090 37427 ft 479 kts 250°
2026-05-05 20:37 52.42242 -82.46413 37431 ft 480 kts 250°
2026-05-05 20:38 52.40037 -82.56718 37429 ft 479 kts 250°
2026-05-05 20:38 52.37825 -82.67007 37438 ft 479 kts 250°
2026-05-05 20:39 52.35603 -82.77286 37434 ft 479 kts 250°
2026-05-05 20:39 52.33372 -82.87556 37440 ft 479 kts 250°
2026-05-05 20:40 52.31131 -82.97822 37447 ft 479 kts 250°
2026-05-05 20:40 52.28882 -83.08074 37446 ft 479 kts 250°
2026-05-05 20:41 52.26635 -83.18264 37446 ft 479 kts 250°
2026-05-05 20:41 52.24368 -83.28496 37452 ft 479 kts 250°
2026-05-05 20:42 52.22093 -83.38713 37451 ft 479 kts 250°
2026-05-05 20:42 52.19810 -83.48918 37455 ft 479 kts 250°
2026-05-05 20:43 52.17517 -83.59117 37463 ft 479 kts 250°
2026-05-05 20:43 52.15602 -83.67595 37461 ft 480 kts 250°
2026-05-05 20:44 52.13291 -83.77782 37467 ft 480 kts 250°
2026-05-05 20:44 52.10970 -83.87966 37472 ft 480 kts 250°
2026-05-05 20:45 52.07466 -84.03244 37484 ft 480 kts 249°
2026-05-05 20:45 52.05137 -84.13341 37481 ft 480 kts 249°
2026-05-05 20:46 52.02787 -84.23478 37485 ft 479 kts 249°
2026-05-05 20:46 52.00430 -84.33601 37490 ft 479 kts 249°
2026-05-05 20:47 51.98069 -84.43690 37494 ft 478 kts 249°
2026-05-05 20:47 51.95699 -84.53768 37499 ft 478 kts 249°
2026-05-05 20:48 51.93323 -84.63828 37502 ft 478 kts 249°
2026-05-05 20:48 51.90940 -84.73872 37506 ft 478 kts 249°
2026-05-05 20:49 51.88546 -84.83913 37511 ft 478 kts 249°
2026-05-05 20:49 51.86142 -84.93949 37721 ft 479 kts 249°
2026-05-05 20:50 51.84937 -84.98962 37963 ft 478 kts 249°
2026-05-05 20:50 51.83730 -85.03974 38190 ft 478 kts 249°
2026-05-05 20:50 51.82523 -85.08976 38362 ft 478 kts 249°
2026-05-05 20:50 51.81315 -85.13965 38556 ft 477 kts 249°
2026-05-05 20:51 51.80106 -85.18950 38739 ft 476 kts 249°
2026-05-05 20:51 51.78896 -85.23930 38927 ft 476 kts 249°
2026-05-05 20:51 51.77684 -85.28904 39095 ft 475 kts 249°
2026-05-05 20:51 51.76470 -85.33873 39252 ft 475 kts 249°
2026-05-05 20:52 51.75271 -85.38773 39400 ft 475 kts 249°
2026-05-05 20:52 51.74053 -85.43736 39447 ft 476 kts 249°
2026-05-05 20:52 51.71606 -85.53677 39538 ft 477 kts 249°
2026-05-05 20:53 51.69129 -85.63697 39552 ft 479 kts 249°
2026-05-05 20:53 51.66663 -85.73624 39562 ft 480 kts 248°
2026-05-05 20:54 51.64173 -85.83606 39560 ft 479 kts 248°
2026-05-05 20:54 51.61689 -85.93515 39567 ft 475 kts 248°
2026-05-05 20:55 51.59214 -86.03348 39572 ft 473 kts 248°
2026-05-05 20:55 51.56741 -86.13127 39584 ft 472 kts 248°
2026-05-05 20:56 51.54263 -86.22886 39591 ft 471 kts 248°
2026-05-05 20:56 51.51783 -86.32612 39600 ft 472 kts 248°
2026-05-05 20:57 51.49277 -86.42393 39603 ft 474 kts 248°
2026-05-05 20:57 51.46755 -86.52195 39604 ft 476 kts 248°
2026-05-05 20:58 51.44220 -86.62006 39614 ft 477 kts 248°
2026-05-05 20:58 51.41690 -86.71758 39619 ft 477 kts 248°
2026-05-05 20:59 51.39117 -86.81627 39624 ft 477 kts 248°
2026-05-05 20:59 51.36556 -86.91411 39630 ft 476 kts 248°
2026-05-05 21:00 51.33990 -87.01172 39635 ft 475 kts 248°
2026-05-05 21:00 51.31439 -87.10836 39645 ft 475 kts 248°
2026-05-05 21:01 51.28863 -87.20553 39648 ft 474 kts 248°
2026-05-05 21:01 51.26282 -87.30247 39660 ft 474 kts 247°
2026-05-05 21:02 51.23693 -87.39926 39663 ft 473 kts 247°
2026-05-05 21:02 51.21101 -87.49581 39671 ft 473 kts 247°
2026-05-05 21:03 51.18504 -87.59210 39666 ft 473 kts 248°
2026-05-05 21:03 51.15900 -87.68830 39685 ft 473 kts 247°
2026-05-05 21:04 51.13286 -87.78443 39698 ft 472 kts 247°
2026-05-05 21:04 51.10668 -87.88030 39699 ft 472 kts 247°
2026-05-05 21:05 51.08042 -87.97612 39700 ft 472 kts 247°
2026-05-05 21:05 51.05406 -88.07187 39713 ft 472 kts 247°
2026-05-05 21:06 51.02779 -88.16692 39710 ft 472 kts 247°
2026-05-05 21:06 51.00130 -88.26239 39712 ft 472 kts 247°
2026-05-05 21:07 50.97473 -88.35775 39715 ft 472 kts 247°
2026-05-05 21:07 50.94812 -88.45282 39722 ft 472 kts 247°
2026-05-05 21:08 50.92142 -88.54789 39722 ft 472 kts 246°
2026-05-05 21:08 50.89461 -88.64293 39725 ft 472 kts 246°
2026-05-05 21:09 50.86775 -88.73778 39727 ft 472 kts 246°
2026-05-05 21:09 50.84083 -88.83245 39731 ft 472 kts 246°
2026-05-05 21:10 50.81383 -88.92702 39736 ft 471 kts 246°
2026-05-05 21:10 50.78680 -89.02136 39737 ft 471 kts 246°
2026-05-05 21:11 50.75968 -89.11562 39747 ft 471 kts 246°
2026-05-05 21:11 50.73267 -89.20912 39747 ft 471 kts 246°
2026-05-05 21:12 50.70542 -89.30306 39753 ft 471 kts 246°
2026-05-05 21:12 50.67792 -89.39752 39759 ft 471 kts 246°
2026-05-05 21:13 50.65069 -89.49071 39763 ft 472 kts 246°
2026-05-05 21:13 50.62319 -89.58443 39768 ft 472 kts 246°
2026-05-05 21:14 50.59553 -89.67834 39773 ft 474 kts 246°
2026-05-05 21:14 50.56765 -89.77263 39780 ft 476 kts 246°
2026-05-05 21:15 50.53963 -89.86708 39788 ft 477 kts 246°
2026-05-05 21:15 50.51150 -89.96141 39785 ft 476 kts 245°
2026-05-05 21:16 50.47756 -90.05080 39791 ft 479 kts 235°
2026-05-05 21:16 50.43799 -90.13493 39798 ft 480 kts 234°
2026-05-05 21:17 50.39825 -90.21891 39802 ft 479 kts 235°
2026-05-05 21:17 50.35879 -90.30277 39807 ft 477 kts 235°
2026-05-05 21:18 50.31940 -90.38666 39812 ft 478 kts 235°
2026-05-05 21:18 50.27992 -90.47058 39815 ft 479 kts 235°
2026-05-05 21:19 50.24036 -90.55440 39819 ft 479 kts 235°
2026-05-05 21:19 50.20073 -90.63808 39823 ft 479 kts 234°
2026-05-05 21:20 50.16112 -90.72142 39828 ft 477 kts 234°
2026-05-05 21:20 50.12145 -90.80462 39832 ft 478 kts 234°
2026-05-05 21:21 50.08169 -90.88775 39831 ft 478 kts 234°
2026-05-05 21:21 50.04199 -90.97050 39845 ft 477 kts 234°
2026-05-05 21:22 50.00241 -91.05273 39841 ft 478 kts 234°
2026-05-05 21:22 49.96248 -91.13545 39842 ft 478 kts 234°
2026-05-05 21:23 49.92263 -91.21773 39857 ft 477 kts 234°
2026-05-05 21:23 49.88261 -91.30013 39856 ft 479 kts 234°
2026-05-05 21:24 49.84250 -91.38245 39860 ft 478 kts 234°
2026-05-05 21:24 49.80248 -91.46430 39864 ft 476 kts 234°
2026-05-05 21:25 49.76245 -91.54595 39874 ft 476 kts 234°
2026-05-05 21:25 49.72241 -91.62735 39864 ft 473 kts 234°
2026-05-05 21:26 49.68282 -91.70757 39866 ft 468 kts 234°
2026-05-05 21:26 49.64333 -91.78739 39876 ft 467 kts 234°
2026-05-05 21:27 49.61055 -91.85345 39878 ft 467 kts 234°
2026-05-05 21:27 49.57106 -91.93283 39883 ft 467 kts 234°
2026-05-05 21:28 49.53143 -92.01224 39882 ft 467 kts 234°
2026-05-05 21:28 49.49172 -92.09156 39887 ft 468 kts 234°
2026-05-05 21:29 49.45191 -92.17086 39893 ft 469 kts 234°
2026-05-05 21:29 49.41195 -92.25022 39893 ft 469 kts 234°
2026-05-05 21:30 49.37195 -92.32942 39893 ft 470 kts 234°
2026-05-05 21:30 49.33187 -92.40854 39903 ft 470 kts 233°
2026-05-05 21:31 49.29167 -92.48766 39904 ft 470 kts 233°
2026-05-05 21:31 49.25142 -92.56666 39903 ft 471 kts 233°
2026-05-05 21:32 49.21135 -92.64505 39906 ft 471 kts 233°
2026-05-05 21:32 49.17069 -92.72436 39909 ft 471 kts 233°
2026-05-05 21:33 49.13043 -92.80268 39915 ft 471 kts 233°
2026-05-05 21:33 49.08989 -92.88129 39918 ft 471 kts 233°
2026-05-05 21:34 49.04931 -92.95977 39919 ft 471 kts 233°
2026-05-05 21:34 49.00871 -93.03804 39921 ft 471 kts 233°
2026-05-05 21:35 48.96807 -93.11616 39923 ft 470 kts 233°
2026-05-05 21:35 48.92740 -93.19410 39927 ft 470 kts 233°
2026-05-05 21:36 48.88672 -93.27184 39927 ft 470 kts 233°
2026-05-05 21:36 48.84601 -93.34943 39926 ft 469 kts 233°
2026-05-05 21:37 48.80552 -93.42637 39922 ft 469 kts 233°
2026-05-05 21:37 48.76476 -93.50358 39922 ft 469 kts 233°
2026-05-05 21:38 48.72397 -93.58065 39920 ft 468 kts 233°
2026-05-05 21:38 48.68319 -93.65748 39934 ft 468 kts 233°
2026-05-05 21:39 48.64232 -93.73426 39921 ft 468 kts 233°
2026-05-05 21:39 48.60146 -93.81079 39929 ft 468 kts 233°
2026-05-05 21:40 48.56057 -93.88719 39939 ft 467 kts 233°
2026-05-05 21:40 48.51961 -93.96352 39954 ft 467 kts 233°
2026-05-05 21:41 48.47972 -94.04073 39956 ft 466 kts 236°
2026-05-05 21:41 48.44182 -94.11929 39954 ft 466 kts 236°
2026-05-05 21:42 48.40389 -94.19822 39958 ft 465 kts 236°
2026-05-05 21:42 48.36580 -94.27689 39958 ft 465 kts 236°
2026-05-05 21:43 48.32758 -94.35534 39957 ft 465 kts 236°
2026-05-05 21:43 48.28930 -94.43363 39952 ft 465 kts 236°
2026-05-05 21:44 48.25098 -94.51176 39954 ft 464 kts 236°
2026-05-05 21:44 48.21261 -94.58979 39951 ft 464 kts 236°
2026-05-05 21:45 48.17421 -94.66765 39953 ft 464 kts 236°
2026-05-05 21:45 48.13579 -94.74534 39954 ft 463 kts 236°
2026-05-05 21:46 48.09740 -94.82277 39958 ft 463 kts 235°
2026-05-05 21:46 48.05919 -94.89959 39962 ft 463 kts 235°
2026-05-05 21:47 48.02071 -94.97673 39963 ft 463 kts 235°
2026-05-05 21:47 47.98222 -95.05369 39973 ft 463 kts 235°
2026-05-05 21:48 47.94365 -95.13058 39975 ft 462 kts 235°
2026-05-05 21:48 47.90503 -95.20736 39980 ft 462 kts 235°
2026-05-05 21:49 47.86645 -95.28385 39981 ft 462 kts 235°
2026-05-05 21:49 47.82778 -95.36029 39991 ft 462 kts 235°
2026-05-05 21:50 47.78911 -95.43653 39994 ft 461 kts 235°
2026-05-05 21:50 47.75037 -95.51269 39998 ft 461 kts 235°
2026-05-05 21:51 47.71159 -95.58872 39995 ft 461 kts 235°
2026-05-05 21:51 47.67283 -95.66450 39990 ft 461 kts 235°
2026-05-05 21:52 47.61491 -95.77737 39992 ft 460 kts 235°
2026-05-05 21:53 47.57609 -95.85276 39988 ft 460 kts 235°
2026-05-05 21:53 47.53726 -95.92799 39993 ft 459 kts 235°
2026-05-05 21:54 47.49841 -96.00304 40003 ft 459 kts 236°
2026-05-05 21:54 47.46082 -96.07921 40008 ft 458 kts 237°
2026-05-05 21:55 47.42405 -96.15604 40018 ft 457 kts 237°
2026-05-05 21:55 47.38721 -96.23261 40027 ft 457 kts 237°
2026-05-05 21:56 47.35042 -96.30837 40025 ft 457 kts 237°
2026-05-05 21:56 47.31327 -96.38444 40024 ft 457 kts 237°
2026-05-05 21:57 47.27611 -96.46033 40023 ft 457 kts 237°
2026-05-05 21:57 47.23890 -96.53610 40025 ft 456 kts 237°
2026-05-05 21:58 47.20168 -96.61171 40020 ft 456 kts 237°
2026-05-05 21:58 47.16444 -96.68715 40014 ft 456 kts 237°
2026-05-05 21:59 47.12716 -96.76248 40011 ft 456 kts 237°
2026-05-05 21:59 47.08984 -96.83768 40007 ft 455 kts 237°
2026-05-05 22:00 47.05246 -96.91279 40005 ft 455 kts 237°
2026-05-05 22:00 47.01508 -96.98770 40017 ft 455 kts 237°
2026-05-05 22:01 46.97767 -97.06246 40016 ft 455 kts 237°
2026-05-05 22:01 46.94020 -97.13716 40019 ft 455 kts 237°
2026-05-05 22:02 46.90267 -97.21175 40022 ft 455 kts 237°
2026-05-05 22:02 46.86518 -97.28608 40029 ft 454 kts 237°
2026-05-05 22:03 46.82766 -97.36026 40038 ft 454 kts 237°
2026-05-05 22:03 46.79036 -97.43383 40034 ft 453 kts 236°
2026-05-05 22:04 46.75278 -97.50774 40041 ft 453 kts 236°
2026-05-05 22:04 46.71514 -97.58157 40041 ft 453 kts 236°
2026-05-05 22:05 46.67751 -97.65520 40039 ft 453 kts 236°
2026-05-05 22:05 46.63983 -97.72872 40042 ft 453 kts 236°
2026-05-05 22:06 46.60212 -97.80214 40041 ft 453 kts 236°
2026-05-05 22:06 46.56435 -97.87546 40037 ft 453 kts 236°
2026-05-05 22:07 46.52658 -97.94863 40034 ft 453 kts 236°
2026-05-05 22:07 46.48666 -98.01949 40037 ft 456 kts 229°
2026-05-05 22:08 46.44096 -98.08274 40034 ft 457 kts 227°
2026-05-05 22:08 46.39469 -98.14576 40030 ft 456 kts 227°
2026-05-05 22:09 46.34854 -98.20890 40030 ft 456 kts 227°
2026-05-05 22:09 46.30248 -98.27208 40033 ft 456 kts 227°
2026-05-05 22:10 46.25643 -98.33519 40035 ft 456 kts 227°
2026-05-05 22:10 46.21033 -98.39821 40039 ft 456 kts 227°
2026-05-05 22:11 46.16421 -98.46109 40041 ft 456 kts 227°
2026-05-05 22:11 46.11807 -98.52384 40044 ft 456 kts 227°
2026-05-05 22:12 46.07192 -98.58646 40045 ft 456 kts 227°
2026-05-05 22:12 46.02577 -98.64893 40045 ft 455 kts 227°
2026-05-05 22:13 45.97961 -98.71125 40045 ft 455 kts 227°
2026-05-05 22:13 45.93341 -98.77348 40049 ft 455 kts 227°
2026-05-05 22:14 45.89501 -98.82509 40052 ft 455 kts 227°
2026-05-05 22:14 45.84879 -98.88708 40044 ft 454 kts 227°
2026-05-05 22:15 45.80264 -98.94882 40044 ft 454 kts 227°
2026-05-05 22:15 45.75645 -99.01047 40047 ft 453 kts 227°
2026-05-05 22:16 45.71026 -99.07197 40043 ft 453 kts 227°
2026-05-05 22:16 45.66409 -99.13331 40038 ft 453 kts 227°
2026-05-05 22:17 45.61795 -99.19446 40044 ft 452 kts 227°
2026-05-05 22:17 45.57171 -99.25560 40044 ft 452 kts 227°
2026-05-05 22:18 45.52551 -99.31655 40044 ft 452 kts 227°
2026-05-05 22:18 45.47929 -99.37738 40042 ft 452 kts 227°
2026-05-05 22:19 45.43308 -99.43804 40040 ft 452 kts 227°
2026-05-05 22:19 45.38684 -99.49861 40043 ft 452 kts 227°
2026-05-05 22:20 45.34054 -99.55912 40035 ft 452 kts 227°
2026-05-05 22:20 45.29452 -99.61912 40035 ft 451 kts 227°
2026-05-05 22:21 45.24824 -99.67933 40037 ft 451 kts 227°
2026-05-05 22:21 45.20192 -99.73945 40034 ft 451 kts 227°
2026-05-05 22:22 45.15563 -99.79940 40034 ft 451 kts 227°
2026-05-05 22:22 45.10927 -99.85929 40029 ft 450 kts 227°
2026-05-05 22:23 45.06301 -99.91895 40032 ft 450 kts 227°
2026-05-05 22:23 45.01678 -99.97842 40029 ft 449 kts 227°
2026-05-05 22:24 44.96813 -100.03423 40040 ft 452 kts 221°
2026-05-05 22:24 44.91757 -100.08640 40039 ft 452 kts 221°
2026-05-05 22:25 44.86641 -100.13903 40040 ft 452 kts 221°
2026-05-05 22:25 44.81599 -100.19110 40038 ft 452 kts 221°
2026-05-05 22:26 44.76527 -100.24353 40039 ft 452 kts 221°
2026-05-05 22:26 44.71464 -100.29579 40040 ft 451 kts 222°
2026-05-05 22:27 44.66402 -100.34791 40035 ft 451 kts 222°
2026-05-05 22:27 44.61341 -100.39990 40028 ft 450 kts 222°
2026-05-05 22:28 44.56278 -100.45181 40030 ft 450 kts 222°
2026-05-05 22:28 44.51217 -100.50357 40023 ft 450 kts 222°
2026-05-05 22:29 44.46159 -100.55517 40029 ft 449 kts 222°
2026-05-05 22:29 44.41114 -100.60654 40025 ft 448 kts 222°
2026-05-05 22:30 44.36072 -100.65777 40038 ft 447 kts 222°
2026-05-05 22:30 44.31043 -100.70876 40040 ft 446 kts 222°
2026-05-05 22:31 44.26051 -100.75926 40057 ft 445 kts 221°
2026-05-05 22:31 44.21036 -100.80988 40055 ft 445 kts 222°
2026-05-05 22:32 44.15990 -100.86071 40054 ft 444 kts 221°
2026-05-05 22:32 44.10984 -100.91104 40055 ft 443 kts 222°
2026-05-05 22:33 44.05981 -100.96122 40056 ft 443 kts 221°
2026-05-05 22:33 44.01021 -101.01086 40053 ft 442 kts 222°
2026-05-05 22:34 43.96026 -101.06075 40058 ft 442 kts 222°
2026-05-05 22:34 43.91036 -101.11048 40055 ft 441 kts 222°
2026-05-05 22:35 43.86050 -101.16007 40052 ft 441 kts 222°
2026-05-05 22:35 43.81073 -101.20946 40053 ft 440 kts 222°
2026-05-05 22:36 43.76099 -101.25873 40054 ft 439 kts 222°
2026-05-05 22:36 43.71133 -101.30781 40055 ft 439 kts 222°
2026-05-05 22:37 43.66165 -101.35681 40056 ft 438 kts 222°
2026-05-05 22:37 43.61212 -101.40556 40063 ft 437 kts 222°
2026-05-05 22:38 43.56254 -101.45426 40057 ft 437 kts 222°
2026-05-05 22:38 43.51305 -101.50277 40053 ft 436 kts 222°
2026-05-05 22:39 43.46361 -101.55114 40053 ft 436 kts 222°
2026-05-05 22:39 43.41418 -101.59940 40056 ft 436 kts 222°
2026-05-05 22:40 43.36466 -101.64765 40051 ft 435 kts 222°
2026-05-05 22:40 43.31520 -101.69574 40045 ft 435 kts 222°
2026-05-05 22:41 43.26573 -101.74373 40052 ft 435 kts 222°
2026-05-05 22:41 43.21624 -101.79165 40045 ft 435 kts 222°
2026-05-05 22:42 43.16678 -101.83946 40045 ft 435 kts 222°
2026-05-05 22:42 43.11737 -101.88712 40046 ft 434 kts 222°
2026-05-05 22:43 43.06795 -101.93471 40031 ft 434 kts 222°
2026-05-05 22:43 43.01881 -101.98192 40026 ft 434 kts 222°
2026-05-05 22:44 42.96812 -102.02722 40019 ft 437 kts 219°
2026-05-05 22:44 42.91612 -102.07014 40003 ft 437 kts 219°
2026-05-05 22:45 42.86408 -102.11290 39996 ft 436 kts 219°
2026-05-05 22:45 42.81219 -102.15568 40001 ft 436 kts 219°
2026-05-05 22:46 42.76040 -102.19843 40008 ft 435 kts 219°
2026-05-05 22:46 42.70860 -102.24114 40004 ft 435 kts 219°
2026-05-05 22:47 42.65680 -102.28375 40011 ft 435 kts 219°
2026-05-05 22:47 42.60499 -102.32629 40012 ft 435 kts 219°
2026-05-05 22:48 42.55324 -102.36869 40020 ft 434 kts 219°
2026-05-05 22:48 42.50149 -102.41101 40019 ft 434 kts 219°
2026-05-05 22:49 42.44976 -102.45323 40017 ft 434 kts 219°
2026-05-05 22:49 42.39802 -102.49537 40010 ft 434 kts 219°
2026-05-05 22:50 42.34630 -102.53742 40005 ft 433 kts 219°
2026-05-05 22:50 42.29498 -102.57906 40000 ft 433 kts 219°
2026-05-05 22:51 42.24331 -102.62091 39998 ft 433 kts 219°
2026-05-05 22:51 42.19164 -102.66268 39984 ft 433 kts 219°
2026-05-05 22:52 42.14009 -102.70425 39986 ft 432 kts 220°
2026-05-05 22:52 42.08857 -102.74573 39983 ft 431 kts 220°
2026-05-05 22:53 42.03721 -102.78702 39984 ft 430 kts 220°
2026-05-05 22:53 41.98585 -102.82820 39985 ft 429 kts 220°
2026-05-05 22:54 41.93462 -102.86922 39991 ft 428 kts 220°
2026-05-05 22:54 41.88360 -102.90999 39982 ft 427 kts 220°
2026-05-05 22:55 41.83263 -102.95065 39947 ft 423 kts 220°
2026-05-05 22:55 41.80747 -102.97063 39760 ft 417 kts 220°
2026-05-05 22:55 41.79101 -102.98371 39603 ft 414 kts 221°
2026-05-05 22:55 41.75805 -103.00990 39235 ft 409 kts 221°
2026-05-05 22:56 41.73400 -103.02902 38980 ft 406 kts 221°
2026-05-05 22:56 41.70980 -103.04824 38722 ft 402 kts 221°
2026-05-05 22:56 41.68588 -103.06723 38452 ft 398 kts 221°
2026-05-05 22:56 41.66210 -103.08611 38084 ft 396 kts 221°
2026-05-05 22:57 41.64612 -103.09880 37809 ft 395 kts 221°
2026-05-05 22:57 41.62280 -103.11728 37417 ft 394 kts 221°
2026-05-05 22:57 41.59890 -103.13614 37036 ft 392 kts 219°
2026-05-05 22:57 41.57385 -103.15090 36621 ft 408 kts 207°
2026-05-05 22:58 41.54525 -103.15726 36225 ft 426 kts 193°
2026-05-05 22:58 41.51552 -103.15800 35858 ft 427 kts 192°
2026-05-05 22:58 41.48584 -103.15838 35545 ft 425 kts 191°
2026-05-05 22:58 41.45634 -103.15891 35281 ft 422 kts 192°
2026-05-05 22:59 41.42705 -103.15971 35012 ft 419 kts 192°
2026-05-05 22:59 41.39799 -103.16071 34735 ft 416 kts 192°
2026-05-05 22:59 41.36918 -103.16181 34439 ft 414 kts 192°
2026-05-05 22:59 41.34040 -103.16291 34154 ft 412 kts 192°
2026-05-05 23:00 41.28337 -103.16503 33540 ft 408 kts 192°
2026-05-05 23:00 41.25515 -103.16605 33194 ft 402 kts 192°
2026-05-05 23:00 41.22732 -103.16707 32791 ft 399 kts 191°
2026-05-05 23:01 41.19971 -103.16809 32370 ft 396 kts 191°
2026-05-05 23:01 41.17229 -103.16913 31949 ft 393 kts 191°
2026-05-05 23:01 41.14508 -103.17015 31554 ft 390 kts 190°
2026-05-05 23:01 41.11808 -103.17116 31156 ft 387 kts 189°
2026-05-05 23:02 41.09123 -103.17216 30775 ft 384 kts 189°
2026-05-05 23:02 41.06465 -103.17314 30382 ft 381 kts 189°
2026-05-05 23:02 41.03910 -103.17839 29990 ft 364 kts 204°
2026-05-05 23:02 41.01684 -103.19279 29674 ft 351 kts 219°
2026-05-05 23:03 40.99677 -103.21257 29428 ft 371 kts 221°
2026-05-05 23:03 40.97578 -103.23426 29144 ft 394 kts 222°
2026-05-05 23:03 40.95404 -103.25673 28825 ft 398 kts 221°
2026-05-05 23:03 40.93237 -103.27886 28523 ft 398 kts 221°
2026-05-05 23:04 40.91044 -103.30105 28217 ft 397 kts 221°
2026-05-05 23:04 40.88846 -103.32315 27932 ft 396 kts 221°
2026-05-05 23:04 40.86653 -103.34516 27627 ft 395 kts 221°
2026-05-05 23:04 40.84464 -103.36708 27333 ft 394 kts 221°
2026-05-05 23:05 40.82286 -103.38888 27017 ft 393 kts 221°
2026-05-05 23:05 40.80111 -103.41062 26732 ft 391 kts 221°
2026-05-05 23:05 40.77942 -103.43225 26440 ft 390 kts 221°
2026-05-05 23:05 40.75781 -103.45377 26142 ft 388 kts 221°
2026-05-05 23:06 40.73627 -103.47519 25851 ft 387 kts 221°
2026-05-05 23:06 40.71497 -103.49638 25573 ft 385 kts 221°
2026-05-05 23:06 40.69366 -103.51758 25274 ft 383 kts 221°
2026-05-05 23:06 40.67232 -103.53878 24980 ft 381 kts 221°
2026-05-05 23:07 40.65129 -103.55965 24699 ft 380 kts 221°
2026-05-05 23:07 40.63009 -103.58068 24412 ft 378 kts 221°
2026-05-05 23:07 40.60920 -103.60153 24128 ft 376 kts 221°
2026-05-05 23:07 40.58840 -103.62233 23843 ft 375 kts 221°
2026-05-05 23:08 40.56782 -103.64294 23555 ft 374 kts 221°
2026-05-05 23:08 40.54704 -103.66374 23227 ft 372 kts 221°
2026-05-05 23:08 40.52647 -103.68429 22921 ft 371 kts 221°
2026-05-05 23:08 40.50598 -103.70472 22627 ft 369 kts 221°
2026-05-05 23:09 40.48559 -103.72502 22351 ft 367 kts 221°
2026-05-05 23:09 40.46533 -103.74520 22084 ft 364 kts 221°
2026-05-05 23:09 40.44742 -103.76811 21795 ft 356 kts 237°
2026-05-05 23:09 40.43460 -103.79548 21540 ft 353 kts 242°
2026-05-05 23:10 40.42216 -103.82366 21282 ft 358 kts 242°
2026-05-05 23:10 40.40956 -103.85184 21016 ft 357 kts 242°
2026-05-05 23:10 40.39692 -103.87978 20735 ft 355 kts 241°
2026-05-05 23:10 40.38428 -103.90751 20468 ft 353 kts 241°
2026-05-05 23:11 40.37165 -103.93507 20181 ft 352 kts 241°
2026-05-05 23:11 40.35906 -103.96248 19936 ft 351 kts 241°
2026-05-05 23:11 40.34648 -103.98980 19700 ft 347 kts 241°
2026-05-05 23:11 40.33409 -104.01665 19409 ft 341 kts 241°
2026-05-05 23:12 40.32205 -104.04270 19136 ft 335 kts 240°
2026-05-05 23:12 40.30794 -104.06651 18942 ft 328 kts 225°
2026-05-05 23:12 40.29056 -104.08536 18715 ft 321 kts 222°
2026-05-05 23:12 40.27324 -104.10335 18504 ft 315 kts 222°
2026-05-05 23:13 40.25623 -104.12110 18300 ft 311 kts 222°
2026-05-05 23:13 40.23943 -104.13881 18080 ft 309 kts 222°
2026-05-05 23:13 40.22283 -104.15643 17858 ft 306 kts 222°
2026-05-05 23:13 40.20635 -104.17399 17646 ft 303 kts 222°
2026-05-05 23:14 40.18997 -104.19150 17462 ft 306 kts 222°
2026-05-05 23:14 40.17331 -104.20930 17274 ft 311 kts 222°
2026-05-05 23:14 40.15653 -104.22721 17073 ft 312 kts 221°
2026-05-05 23:14 40.13972 -104.24513 16802 ft 313 kts 221°
2026-05-05 23:15 40.12277 -104.26318 16484 ft 315 kts 221°
2026-05-05 23:15 40.10579 -104.28124 16183 ft 314 kts 221°
2026-05-05 23:15 40.08899 -104.29910 15874 ft 309 kts 221°
2026-05-05 23:15 40.07241 -104.31671 15563 ft 305 kts 221°
2026-05-05 23:16 40.05606 -104.33407 15271 ft 301 kts 221°
2026-05-05 23:16 40.03981 -104.35133 14989 ft 301 kts 221°
2026-05-05 23:16 40.02360 -104.36856 14690 ft 300 kts 221°
2026-05-05 23:16 40.00741 -104.38573 14400 ft 299 kts 220°
2026-05-05 23:17 39.99122 -104.40289 14115 ft 299 kts 220°
2026-05-05 23:17 39.97510 -104.41995 13822 ft 299 kts 220°
2026-05-05 23:17 39.95919 -104.43680 13501 ft 298 kts 220°
2026-05-05 23:17 39.94292 -104.45407 13202 ft 297 kts 220°
2026-05-05 23:18 39.92711 -104.47083 12911 ft 296 kts 220°
2026-05-05 23:18 39.91118 -104.48751 12625 ft 290 kts 216°
2026-05-05 23:18 39.89303 -104.49839 12338 ft 289 kts 194°
2026-05-05 23:18 39.87293 -104.50040 12125 ft 288 kts 181°
2026-05-05 23:19 39.85298 -104.50040 11825 ft 282 kts 181°
2026-05-05 23:19 39.83392 -104.50050 11517 ft 266 kts 182°
2026-05-05 23:19 39.81586 -104.50071 11251 ft 252 kts 182°
2026-05-05 23:19 39.79880 -104.50095 11102 ft 238 kts 182°
2026-05-05 23:20 39.78225 -104.50149 11053 ft 241 kts 183°
2026-05-05 23:20 39.76526 -104.50217 11044 ft 246 kts 183°
2026-05-05 23:20 39.74808 -104.50287 11043 ft 248 kts 183°
2026-05-05 23:20 39.73088 -104.50357 11024 ft 246 kts 183°
2026-05-05 23:21 39.71371 -104.50429 10832 ft 248 kts 182°
2026-05-05 23:21 39.69634 -104.50462 10628 ft 251 kts 181°
2026-05-05 23:21 39.67895 -104.50483 10404 ft 248 kts 180°
2026-05-05 23:21 39.66227 -104.50806 10159 ft 243 kts 204°
2026-05-05 23:22 39.64907 -104.52130 9908 ft 244 kts 234°
2026-05-05 23:22 39.64271 -104.54175 9557 ft 248 kts 262°
2026-05-05 23:22 39.64165 -104.56417 9225 ft 250 kts 269°
2026-05-05 23:22 39.64159 -104.58681 8841 ft 249 kts 273°
2026-05-05 23:23 39.64609 -104.60814 8469 ft 248 kts 302°
2026-05-05 23:23 39.65787 -104.62412 8137 ft 245 kts 323°
2026-05-05 23:23 39.67184 -104.63683 7825 ft 246 kts 327°
2026-05-05 23:23 39.68613 -104.64910 7509 ft 246 kts 327°
2026-05-05 23:24 39.70091 -104.65883 7201 ft 240 kts 348°
2026-05-05 23:24 39.71681 -104.66117 7084 ft 218 kts 356°
2026-05-05 23:24 39.73100 -104.66174 7063 ft 191 kts 359°
2026-05-05 23:24 39.74385 -104.66159 7011 ft 184 kts
2026-05-05 23:25 39.75686 -104.66142 6992 ft 184 kts
2026-05-05 23:25 39.76945 -104.66126 6812 ft 178 kts
2026-05-05 23:25 39.78126 -104.66111 6584 ft 162 kts 360°
2026-05-05 23:25 39.79190 -104.66099 6322 ft 145 kts
2026-05-05 23:26 39.80183 -104.66087 6086 ft 141 kts
2026-05-05 23:26 39.81167 -104.66081 5868 ft 141 kts
2026-05-05 23:26 39.82144 -104.66086 5648 ft 140 kts
2026-05-05 23:26 39.83119 -104.66062 5453 ft 139 kts
2026-05-05 23:27 39.84005 -104.66044 5414 ft 111 kts
2026-05-05 23:27 39.84656 -104.66033 5406 ft 76 kts 360°
2026-05-05 23:27 39.85027 -104.66036 5394 ft 32 kts 353°
2026-05-05 23:27 39.85222 -104.66108 5397 ft 18 kts 334°
2026-05-05 23:28 39.85287 -104.66169 5390 ft 11 kts 295°
2026-05-05 23:28 39.85292 -104.66220 5396 ft 0 kts 271°
2026-05-05 23:28 39.85292 -104.66241 5397 ft 7 kts 269°
2026-05-05 23:29 39.85295 -104.66305 5399 ft 10 kts 283°
2026-05-05 23:29 39.85359 -104.66354 5389 ft 12 kts 355°
2026-05-05 23:29 39.85440 -104.66354 5389 ft 12 kts 359°
2026-05-05 23:29 39.85521 -104.66355 5388 ft 12 kts 360°
2026-05-05 23:30 39.85580 -104.66414 5384 ft 12 kts 284°
2026-05-05 23:30 39.85584 -104.66573 5385 ft 22 kts 270°
2026-05-05 23:30 39.85586 -104.66768 5384 ft 18 kts 270°
2026-05-05 23:30 39.85587 -104.66920 5385 ft 17 kts 270°
2026-05-05 23:31 39.85587 -104.67072 5385 ft 17 kts 271°
2026-05-05 23:31 39.85589 -104.67224 5385 ft 17 kts 270°
2026-05-05 23:31 39.85591 -104.67376 5387 ft 17 kts 271°
2026-05-05 23:31 39.85592 -104.67528 5385 ft 17 kts 270°
2026-05-05 23:32 39.85590 -104.67680 5385 ft 17 kts 269°
2026-05-05 23:32 39.85556 -104.67765 5380 ft 9 kts 203°
2026-05-05 23:32 39.85508 -104.67772 5388 ft 6 kts 182°
2026-05-05 23:32 39.85473 -104.67773 5389 ft 4 kts 180°
2026-05-05 23:33 39.85455 -104.67773 5390 ft 1 kts 180°
2026-05-05 23:33 39.85451 -104.67773 5390 ft 0 kts 180°